IZ1UQG-2 Weather Reports


time (UTC)temp
F
wind
direction
speed
knots
gust
knots
rain 1hr
in
rain 24hr
in
rain mn
in
humidity
%
barometer
mb
20260507235204 54 228 3.5 4.3 0.00 0.00 0.00 80 1013.1
20260507235104 54 227 3.5 5.2 0.00 0.00 0.00 80 1013.2
20260507235004 54 226 3.5 5.2 0.00 0.00 0.00 80 1013.1
20260507234903 54 225 3.5 6.1 0.00 0.00 0.00 80 1013.1
20260507234804 54 224 3.5 6.1 0.00 0.00 0.00 80 1013.1
20260507234707 55 224 4.3 6.1 0.00 0.00 0.00 80 1013.2
20260507234604 55 224 4.3 6.1 0.00 0.00 0.00 79 1013.2
20260507234504 55 224 4.3 6.1 0.00 0.00 0.00 79 1013.3
20260507234416 55 225 4.3 6.1 0.00 0.00 0.00 79 1013.2
20260507234204 55 227 3.5 6.1 0.00 0.00 0.00 79 1013.1
20260507234104 55 227 3.5 6.1 0.00 0.00 0.00 79 1013.2
20260507234004 55 228 3.5 6.1 0.00 0.00 0.00 79 1013.2
20260507233904 55 230 2.6 6.1 0.00 0.00 0.00 78 1013.2
20260507233804 55 232 1.7 6.1 0.00 0.00 0.00 78 1013.2
20260507233704 55 236 1.7 5.2 0.00 0.00 0.00 78 1013.3
20260507233504 55 249 0.9 3.5 0.00 0.00 0.00 78 1013.2
20260507233407 55 253 0.9 3.5 0.00 0.00 0.00 78 1013.1
20260507233304 56 246 0.9 4.3 0.00 0.00 0.00 78 1013.2
20260507233204 56 239 0.9 5.2 0.00 0.00 0.00 78 1013.1
20260507233114 56 237 0.9 6.1 0.00 0.00 0.00 78 1013.1
20260507233004 56 233 1.7 6.1 0.00 0.00 0.00 77 1013.2
20260507232904 56 235 1.7 6.1 0.00 0.00 0.00 78 1013.2
20260507232804 56 237 2.6 6.1 0.00 0.00 0.00 77 1013.1
20260507232704 56 237 2.6 6.1 0.00 0.00 0.00 77 1013.1
20260507232603 56 237 2.6 6.1 0.00 0.00 0.00 78 1013.2
20260507232505 56 233 2.6 6.1 0.00 0.00 0.00 78 1013.2
20260507232405 56 230 3.5 6.1 0.00 0.00 0.00 78 1013.1
20260507232306 56 228 3.5 7.0 0.00 0.00 0.00 79 1013.2
20260507232204 56 227 3.5 7.0 0.00 0.00 0.00 79 1013.2
20260507232108 55 226 3.5 7.0 0.00 0.00 0.00 79 1013.2
20260507232005 55 225 4.3 7.0 0.00 0.00 0.00 80 1013.3
20260507231904 55 223 4.3 7.0 0.00 0.00 0.00 80 1013.3
20260507231816 55 222 4.3 7.0 0.00 0.00 0.00 80 1013.3
20260507231604 55 221 5.2 7.0 0.00 0.00 0.00 80 1013.1
20260507231504 55 221 5.2 7.0 0.00 0.00 0.00 80 1013.2
20260507231404 55 221 5.2 7.0 0.00 0.00 0.00 80 1013.4
20260507231304 55 222 5.2 7.0 0.00 0.00 0.00 80 1013.3
20260507231204 55 223 5.2 7.0 0.00 0.00 0.00 79 1013.4
20260507231104 55 223 5.2 7.0 0.00 0.00 0.00 79 1013.3
20260507230804 55 224 5.2 7.0 0.00 0.00 0.00 79 1013.3
20260507230703 55 224 4.3 7.0 0.00 0.00 0.00 79 1013.3
20260507230605 55 224 4.3 7.0 0.00 0.00 0.00 79 1013.3
20260507230505 55 224 4.3 6.1 0.00 0.00 0.00 79 1013.3
20260507230207 55 224 3.5 6.1 0.00 0.00 0.00 79 1013.2
20260507230104 56 224 3.5 6.1 0.00 0.00 0.00 79 1013.1
20260507225915 56 225 2.6 4.3 0.00 0.00 0.00 78 1013.1
20260507225804 56 225 2.6 4.3 0.00 0.00 0.00 78 1013.2
20260507225705 56 225 2.6 4.3 0.00 0.00 0.00 78 1013.2
20260507225604 56 226 2.6 4.3 0.00 0.00 0.00 78 1013.2
20260507225505 56 225 2.6 4.3 0.00 0.00 0.00 78 1013.3
20260507225405 56 225 2.6 3.5 0.00 0.00 0.00 78 1013.2
20260507225306 56 225 2.6 3.5 0.00 0.00 0.00 78 1013.1
20260507225204 56 225 2.6 3.5 0.00 0.00 0.00 78 1013.1
20260507225104 56 226 2.6 4.3 0.00 0.00 0.00 78 1013.1
20260507224804 56 223 2.6 6.1 0.00 0.00 0.00 78 1013.1
20260507224705 56 221 3.5 6.1 0.00 0.00 0.00 78 1013.0
20260507224615 56 220 3.5 6.1 0.00 0.00 0.00 78 1013.0
20260507224505 56 221 3.5 6.1 0.00 0.00 0.00 78 1013.1
20260507224404 56 221 3.5 6.1 0.00 0.00 0.00 78 1013.1
20260507224304 56 220 4.3 6.1 0.00 0.00 0.00 78 1013.1
20260507224205 56 220 4.3 6.1 0.00 0.00 0.00 78 1013.1
20260507224104 56 220 4.3 6.1 0.00 0.00 0.00 78 1013.0
20260507224005 56 220 4.3 6.1 0.00 0.00 0.00 78 1013.1
20260507223804 56 221 4.3 6.1 0.00 0.00 0.00 78 1013.1
20260507223704 56 223 4.3 6.1 0.00 0.00 0.00 78 1013.1
20260507223609 56 225 4.3 6.1 0.00 0.00 0.00 77 1013.1
20260507223504 56 225 4.3 6.1 0.00 0.00 0.00 77 1013.0
20260507223404 56 227 3.5 6.1 0.00 0.00 0.00 77 1013.0
20260507223317 56 229 3.5 6.1 0.00 0.00 0.00 77 1013.0
20260507223204 56 232 3.5 6.1 0.00 0.00 0.00 77 1013.0
20260507223104 56 236 2.6 6.1 0.00 0.00 0.00 77 1013.1
20260507223005 56 239 2.6 6.1 0.00 0.00 0.00 77 1013.0
20260507222904 56 243 2.6 6.1 0.00 0.00 0.00 77 1013.0
20260507222804 56 248 1.7 5.2 0.00 0.00 0.00 77 1013.0
20260507222704 56 248 1.7 5.2 0.00 0.00 0.00 77 1013.1
20260507222603 57 248 1.7 3.5 0.00 0.00 0.00 77 1013.0
20260507222505 57 247 1.7 3.5 0.00 0.00 0.00 77 1013.0
20260507222404 57 243 1.7 3.5 0.00 0.00 0.00 77 1012.9
20260507222307 57 237 1.7 3.5 0.00 0.00 0.00 77 1012.8
20260507222204 57 231 1.7 3.5 0.00 0.00 0.00 76 1012.8
20260507222104 57 226 1.7 5.2 0.00 0.00 0.00 76 1013.0
20260507222015 57 221 2.6 5.2 0.00 0.00 0.00 76 1013.0
20260507221904 57 218 2.6 5.2 0.00 0.00 0.00 76 1012.8
20260507221704 57 216 3.5 6.1 0.00 0.00 0.00 77 1012.8
20260507221603 57 216 3.5 6.1 0.00 0.00 0.00 77 1012.8
20260507221404 57 214 4.3 7.0 0.00 0.00 0.00 77 1012.9
20260507221304 57 213 4.3 7.0 0.00 0.00 0.00 77 1012.9
20260507221204 57 213 4.3 7.0 0.00 0.00 0.00 77 1012.8
20260507221012 57 211 5.2 7.0 0.00 0.00 0.00 77 1012.8
20260507220704 57 212 4.3 7.0 0.00 0.00 0.00 76 1012.8
20260507220604 57 213 4.3 7.0 0.00 0.00 0.00 76 1012.8
20260507220512 57 215 3.5 7.0 0.00 0.00 0.00 76 1012.8
20260507220404 57 218 3.5 7.0 0.00 0.00 0.00 76 1012.9
20260507220304 57 221 3.5 7.0 0.00 0.00 0.00 76 1012.9
20260507220215 57 228 2.6 6.1 0.00 0.00 0.00 76 1012.9
20260507220006 58 253 1.7 4.3 0.00 0.00 0.00 76 1012.8
20260507215904 58 272 1.7 3.5 0.00 0.00 0.00 76 1012.8
20260507215804 58 288 1.7 4.3 0.00 0.00 0.00 76 1012.8
20260507215704 58 298 1.7 4.3 0.00 0.00 0.00 76 1012.9
20260507215604 58 305 1.7 4.3 0.00 0.00 0.00 76 1012.8
20260507215104 58 315 0.9 4.3 0.00 0.00 0.00 75 1012.8
20260507214907 58 308 0.9 4.3 0.00 0.00 0.00 75 1012.7
20260507214805 58 297 0.9 4.3 0.00 0.00 0.00 75 1012.7
20260507214614 58 273 0.0 1.7 0.00 0.00 0.00 75 1012.7
20260507214504 58 275 0.0 1.7 0.00 0.00 0.00 75 1012.7
20260507214403 58 278 0.0 1.7 0.00 0.00 0.00 75 1012.6
20260507214204 58 276 0.9 1.7 0.00 0.00 0.00 75 1012.7
20260507214104 58 270 0.9 3.5 0.00 0.00 0.00 74 1012.6
20260507214005 58 263 0.9 5.2 0.00 0.00 0.00 74 1012.6
20260507213904 59 253 1.7 5.2 0.00 0.00 0.00 75 1012.6
20260507213804 58 246 1.7 5.2 0.00 0.00 0.00 75 1012.6
20260507213704 59 239 1.7 6.1 0.00 0.00 0.00 74 1012.6
20260507213604 58 236 2.6 6.1 0.00 0.00 0.00 74 1012.6
20260507213504 58 232 2.6 6.1 0.00 0.00 0.00 74 1012.6
20260507213404 58 228 3.5 6.1 0.00 0.00 0.00 74 1012.7
20260507213312 58 226 3.5 6.1 0.00 0.00 0.00 75 1012.7
20260507213204 58 224 3.5 6.1 0.00 0.00 0.00 74 1012.7
20260507213103 58 222 3.5 6.1 0.00 0.00 0.00 74 1012.7
20260507213015 58 221 3.5 6.1 0.00 0.00 0.00 74 1012.7
20260507212905 58 220 3.5 6.1 0.00 0.00 0.00 74 1012.7
20260507212804 58 220 2.6 6.1 0.00 0.00 0.00 74 1012.7
20260507212704 58 221 2.6 6.1 0.00 0.00 0.00 75 1012.7
20260507212604 58 223 2.6 6.1 0.00 0.00 0.00 74 1012.7
20260507212404 58 230 1.7 6.1 0.00 0.00 0.00 74 1012.6
20260507212307 59 235 1.7 4.3 0.00 0.00 0.00 74 1012.7
20260507212203 59 240 1.7 4.3 0.00 0.00 0.00 74 1012.7
20260507211904 59 252 0.9 3.5 0.00 0.00 0.00 74 1012.6
20260507211714 59 261 0.9 3.5 0.00 0.00 0.00 74 1012.5
20260507211604 59 269 0.9 2.6 0.00 0.00 0.00 74 1012.5
20260507211505 59 274 0.9 2.6 0.00 0.00 0.00 74 1012.6
20260507211304 59 276 0.9 1.7 0.00 0.00 0.00 74 1012.5
20260507211204 59 274 0.9 2.6 0.00 0.00 0.00 74 1012.5
20260507211104 59 275 0.9 2.6 0.00 0.00 0.00 75 1012.5
20260507211004 59 275 0.9 2.6 0.00 0.00 0.00 75 1012.5
20260507210904 59 278 0.9 2.6 0.00 0.00 0.00 75 1012.5
20260507210804 58 284 0.9 2.6 0.00 0.00 0.00 75 1012.5
20260507210707 58 293 0.9 2.6 0.00 0.00 0.00 75 1012.6
20260507210504 58 311 1.7 2.6 0.00 0.00 0.00 75 1012.6
20260507210415 58 318 1.7 2.6 0.00 0.00 0.00 75 1012.7
20260507210304 58 328 1.7 3.5 0.00 0.00 0.00 75 1012.7
20260507210204 58 336 1.7 3.5 0.00 0.00 0.00 76 1012.6
20260507210005 58 348 1.7 4.3 0.00 0.00 0.00 76 1012.6
20260507205904 58 352 2.6 4.3 0.00 0.00 0.00 76 1012.6
20260507205804 58 352 2.6 4.3 0.00 0.00 0.00 75 1012.6
20260507205704 58 351 2.6 4.3 0.00 0.00 0.00 75 1012.5
20260507205604 58 352 2.6 4.3 0.00 0.00 0.00 76 1012.6
20260507205505 58 352 2.6 4.3 0.00 0.00 0.00 76 1012.6
20260507205408 58 352 2.6 4.3 0.00 0.00 0.00 76 1012.5
20260507205306 58 352 2.6 4.3 0.00 0.00 0.00 76 1012.6
20260507205203 58 353 3.5 4.3 0.00 0.00 0.00 76 1012.6
20260507205114 58 352 3.5 4.3 0.00 0.00 0.00 76 1012.5
20260507205004 58 350 3.5 4.3 0.00 0.00 0.00 77 1012.5
20260507204904 58 350 3.5 4.3 0.00 0.00 0.00 77 1012.5
20260507204804 58 351 3.5 4.3 0.00 0.00 0.00 76 1012.5
20260507204704 58 351 2.6 4.3 0.00 0.00 0.00 76 1012.4
20260507204604 58 348 2.6 4.3 0.00 0.00 0.00 76 1012.5
20260507204505 58 345 2.6 4.3 0.00 0.00 0.00 76 1012.5
20260507204404 58 341 2.6 4.3 0.00 0.00 0.00 76 1012.6
20260507204304 58 337 2.6 4.3 0.00 0.00 0.00 76 1012.5
20260507204203 58 332 2.6 4.3 0.00 0.00 0.00 76 1012.5
20260507204005 59 322 1.7 4.3 0.00 0.00 0.00 76 1012.4
20260507203904 59 318 1.7 3.5 0.00 0.00 0.00 75 1012.5
20260507203814 59 314 1.7 2.6 0.00 0.00 0.00 75 1012.4
20260507203704 59 310 1.7 2.6 0.00 0.00 0.00 75 1012.5
20260507203504 59 306 0.9 2.6 0.00 0.00 0.00 74 1012.4
20260507203404 59 304 0.9 2.6 0.00 0.00 0.00 74 1012.3
20260507203304 60 300 0.9 2.6 0.00 0.00 0.00 74 1012.3
20260507203204 60 294 0.0 2.6 0.00 0.00 0.00 74 1012.3
20260507203103 60 276 0.0 1.7 0.00 0.00 0.00 74 1012.2
20260507203004 60 263 0.0 1.7 0.00 0.00 0.00 74 1012.2
20260507202904 60 263 0.0 1.7 0.00 0.00 0.00 74 1012.2
20260507202804 60 263 0.0 1.7 0.00 0.00 0.00 74 1012.2
20260507202704 60 263 0.0 1.7 0.00 0.00 0.00 73 1012.1
20260507202603 60 264 0.0 1.7 0.00 0.00 0.00 73 1012.2
20260507202404 60 264 0.0 1.7 0.00 0.00 0.00 73 1012.1
20260507202306 60 264 0.0 1.7 0.00 0.00 0.00 73 1012.1
20260507202214 60 265 0.0 1.7 0.00 0.00 0.00 72 1012.1
20260507202104 60 262 0.0 0.9 0.00 0.00 0.00 72 1012.1
20260507201904 60 259 0.0 0.9 0.00 0.00 0.00 72 1011.9
20260507201804 60 249 0.0 1.7 0.00 0.00 0.00 71 1011.9
20260507201704 60 235 0.0 1.7 0.00 0.00 0.00 71 1011.9
20260507201604 60 225 0.9 2.6 0.00 0.00 0.00 71 1011.9
20260507201504 60 222 0.9 2.6 0.00 0.00 0.00 71 1011.9
20260507201403 60 222 0.9 2.6 0.00 0.00 0.00 71 1011.8
20260507201303 60 222 0.9 2.6 0.00 0.00 0.00 71 1011.9
20260507201206 60 219 0.9 2.6 0.00 0.00 0.00 71 1011.9
20260507201104 60 219 0.9 2.6 0.00 0.00 0.00 71 1011.8
20260507201004 60 219 0.9 2.6 0.00 0.00 0.00 70 1011.7
20260507200915 60 219 0.9 2.6 0.00 0.00 0.00 70 1011.7
20260507200804 60 218 0.9 2.6 0.00 0.00 0.00 70 1011.8
20260507200703 60 216 0.9 2.6 0.00 0.00 0.00 70 1011.7
20260507200604 60 214 0.9 2.6 0.00 0.00 0.00 70 1011.7
20260507200504 60 213 0.9 2.6 0.00 0.00 0.00 70 1011.7
20260507200304 60 210 0.9 2.6 0.00 0.00 0.00 70 1011.7
20260507200204 60 209 0.9 2.6 0.00 0.00 0.00 70 1011.8
20260507200104 60 207 0.9 2.6 0.00 0.00 0.00 70 1011.6
20260507200004 60 205 0.9 2.6 0.00 0.00 0.00 70 1011.7
20260507195904 60 200 0.9 2.6 0.00 0.00 0.00 70 1011.6
20260507195704 60 196 0.9 1.7 0.00 0.00 0.00 70 1011.5
20260507195505 60 192 0.0 1.7 0.00 0.00 0.00 70 1011.5
20260507195404 61 189 0.9 1.7 0.00 0.00 0.00 70 1011.5
20260507195307 61 188 0.9 2.6 0.00 0.00 0.00 70 1011.5
20260507195014 61 194 0.9 2.6 0.00 0.00 0.00 69 1011.5
20260507194904 61 194 0.9 2.6 0.00 0.00 0.00 69 1011.3
20260507194805 60 194 0.9 2.6 0.00 0.00 0.00 69 1011.4
20260507194704 61 198 0.9 2.6 0.00 0.00 0.00 69 1011.4
20260507194603 61 206 0.9 2.6 0.00 0.00 0.00 69 1011.4
20260507194504 61 210 0.9 2.6 0.00 0.00 0.00 69 1011.3
20260507194404 61 218 0.9 2.6 0.00 0.00 0.00 69 1011.4
20260507194204 61 196 0.9 3.5 0.00 0.00 0.00 69 1011.3
20260507194106 61 182 0.9 3.5 0.00 0.00 0.00 70 1011.2
20260507193904 61 171 0.9 3.5 0.00 0.00 0.00 69 1011.2
20260507193714 61 169 0.9 3.5 0.00 0.00 0.00 69 1011.2
20260507193604 61 167 1.7 4.3 0.00 0.00 0.00 69 1011.2
20260507193504 61 172 1.7 4.3 0.00 0.00 0.00 68 1011.1
20260507193404 61 173 1.7 4.3 0.00 0.00 0.00 68 1011.1
20260507193304 61 176 2.6 7.0 0.00 0.00 0.00 68 1011.0
20260507193204 61 179 2.6 7.0 0.00 0.00 0.00 68 1011.1
20260507193104 61 182 2.6 7.0 0.00 0.00 0.00 68 1011.0
20260507193004 61 182 2.6 7.0 0.00 0.00 0.00 68 1011.1
20260507192903 61 186 3.5 7.0 0.00 0.01 0.00 68 1011.0
20260507192804 61 188 3.5 7.0 0.00 0.01 0.00 68 1011.0
20260507192704 61 190 3.5 7.0 0.00 0.01 0.00 68 1011.0
20260507192505 61 191 4.3 7.0 0.00 0.01 0.00 68 1011.0
20260507192410 61 192 4.3 7.0 0.00 0.01 0.00 68 1010.9
20260507192306 61 194 4.3 7.0 0.00 0.01 0.00 68 1011.0
20260507192204 61 194 4.3 7.0 0.00 0.01 0.00 68 1011.0
20260507192115 61 195 4.3 7.0 0.00 0.01 0.00 68 1010.9
20260507192004 61 198 4.3 7.0 0.00 0.01 0.00 68 1010.9
20260507191903 61 198 4.3 7.0 0.00 0.01 0.00 68 1011.0
20260507191804 61 200 4.3 7.0 0.00 0.01 0.00 68 1010.9
20260507191704 61 201 4.3 7.0 0.00 0.01 0.00 68 1010.9
20260507191504 61 204 4.3 7.0 0.00 0.01 0.00 68 1010.8
20260507191404 61 206 4.3 7.0 0.00 0.01 0.00 68 1010.9
20260507191304 61 208 4.3 7.0 0.00 0.01 0.00 68 1010.9
20260507191205 61 211 4.3 7.0 0.00 0.02 0.00 67 1010.9
20260507191107 61 213 4.3 7.0 0.00 0.02 0.00 67 1010.8
20260507191004 62 215 3.5 7.0 0.00 0.02 0.00 67 1010.8
20260507190904 62 216 3.5 7.0 0.00 0.02 0.00 67 1010.9
20260507190814 62 218 3.5 7.0 0.00 0.02 0.00 67 1010.9
20260507190704 62 223 3.5 7.0 0.00 0.02 0.00 67 1010.8
20260507190604 62 225 3.5 7.0 0.00 0.02 0.00 67 1010.8
20260507190404 62 225 3.5 7.0 0.00 0.02 0.00 67 1010.7
20260507190304 62 222 3.5 7.0 0.00 0.02 0.00 67 1010.9
20260507190005 62 216 4.3 7.0 0.00 0.02 0.00 67 1010.8
20260507185904 62 215 4.3 7.0 0.00 0.02 0.00 67 1010.8
20260507185807 62 213 4.3 6.1 0.00 0.03 0.00 67 1010.8
20260507185704 62 211 4.3 6.1 0.00 0.03 0.00 67 1010.7
20260507185515 62 207 4.3 7.8 0.00 0.04 0.00 67 1010.7
20260507185405 62 206 4.3 7.8 0.00 0.04 0.00 67 1010.7
20260507185306 62 205 4.3 7.8 0.00 0.04 0.00 67 1010.7
20260507185104 62 205 4.3 7.8 0.00 0.04 0.00 67 1010.7
20260507185005 62 205 4.3 7.8 0.00 0.05 0.00 67 1010.7
20260507184904 62 205 5.2 7.8 0.00 0.05 0.00 67 1010.6
20260507184506 62 205 5.2 8.7 0.00 0.06 0.00 66 1010.7
20260507184404 62 205 5.2 8.7 0.00 0.06 0.00 66 1010.7
20260507184305 62 205 5.2 8.7 0.00 0.06 0.00 66 1010.7
20260507184214 62 206 5.2 8.7 0.00 0.06 0.00 66 1010.6
20260507184104 62 205 5.2 8.7 0.00 0.06 0.00 66 1010.6
20260507184004 62 206 5.2 8.7 0.00 0.06 0.00 66 1010.7
20260507183904 62 206 5.2 8.7 0.00 0.06 0.00 66 1010.6
20260507183804 62 207 5.2 8.7 0.00 0.06 0.00 66 1010.7
20260507183704 62 208 5.2 8.7 0.00 0.06 0.00 66 1010.6
20260507183604 62 207 4.3 7.8 0.00 0.07 0.00 66 1010.6
20260507183504 62 208 4.3 7.8 0.00 0.07 0.00 66 1010.6
20260507183404 62 209 4.3 7.8 0.00 0.08 0.00 66 1010.7
20260507183304 62 209 4.3 7.0 0.00 0.08 0.00 66 1010.7
20260507183104 62 211 3.5 6.1 0.00 0.09 0.00 65 1010.5
20260507183004 62 212 3.5 6.1 0.00 0.10 0.00 65 1010.6
20260507182915 62 213 3.5 6.1 0.00 0.10 0.00 65 1010.6
20260507182804 62 216 3.5 6.1 0.00 0.11 0.00 65 1010.6
20260507182704 62 217 2.6 6.1 0.00 0.11 0.00 65 1010.6
20260507182604 62 220 2.6 6.1 0.00 0.12 0.00 65 1010.5
20260507182505 63 220 2.6 6.1 0.00 0.12 0.00 65 1010.6
20260507182404 63 222 1.7 6.1 0.00 0.12 0.00 65 1010.5
20260507182306 63 226 1.7 4.3 0.00 0.13 0.00 65 1010.5
20260507182204 63 227 1.7 4.3 0.00 0.13 0.00 65 1010.5
20260507182104 63 232 1.7 4.3 0.00 0.13 0.00 65 1010.5
20260507182004 63 233 1.7 4.3 0.00 0.13 0.00 65 1010.4
20260507181907 63 237 0.9 4.3 0.00 0.13 0.00 65 1010.4
20260507181804 63 242 0.9 4.3 0.00 0.13 0.00 65 1010.4
20260507181704 63 250 0.9 2.6 0.00 0.13 0.00 65 1010.4
20260507181615 63 253 0.9 2.6 0.00 0.13 0.00 65 1010.4
20260507181504 63 260 0.9 2.6 0.00 0.13 0.00 65 1010.4
20260507181404 63 263 0.9 2.6 0.00 0.13 0.00 65 1010.3
20260507181203 62 278 0.9 2.6 0.00 0.13 0.00 65 1010.3
20260507181103 62 292 0.0 2.6 0.00 0.13 0.00 65 1010.2
20260507181004 62 311 0.0 1.7 0.00 0.13 0.00 64 1010.3
20260507180904 62 321 0.0 1.7 0.00 0.13 0.00 64 1010.3
20260507180804 63 322 0.0 1.7 0.00 0.13 0.00 64 1010.3
20260507180610 63 318 0.0 1.7 0.00 0.13 0.00 64 1010.3
20260507180504 63 316 0.0 1.7 0.00 0.13 0.00 64 1010.3
20260507180404 63 315 0.0 1.7 0.00 0.13 0.00 64 1010.3
20260507180316 63 315 0.0 1.7 0.00 0.13 0.00 63 1010.2
20260507180204 63 312 0.9 1.7 0.00 0.13 0.00 63 1010.3
20260507180104 63 297 0.9 2.6 0.00 0.13 0.00 63 1010.2
20260507180005 63 277 0.9 2.6 0.00 0.13 0.00 63 1010.2
20260507175904 63 266 0.9 3.5 0.00 0.13 0.00 63 1010.1
20260507175805 64 254 0.9 3.5 0.00 0.13 0.00 63 1010.1
20260507175704 64 240 0.9 4.3 0.00 0.13 0.00 63 1010.1
20260507175504 64 224 1.7 4.3 0.00 0.13 0.00 63 1010.1
20260507175403 64 221 1.7 5.2 0.00 0.13 0.00 63 1010.1
20260507175307 64 217 2.6 5.2 0.00 0.13 0.00 63 1010.1
20260507175204 64 213 2.6 5.2 0.00 0.13 0.00 63 1010.1
20260507175104 64 211 2.6 5.2 0.00 0.13 0.00 63 1010.0
20260507175004 64 210 3.5 5.2 0.00 0.13 0.00 63 1010.1
20260507174903 64 210 3.5 5.2 0.00 0.13 0.00 62 1010.1
20260507174804 64 210 3.5 5.2 0.00 0.13 0.00 62 1010.0
20260507174708 64 210 3.5 5.2 0.00 0.13 0.00 62 1010.0
20260507174604 64 209 3.5 5.2 0.00 0.13 0.00 62 1010.1
20260507174504 64 209 3.5 5.2 0.00 0.13 0.00 63 1010.1
20260507174414 64 210 3.5 5.2 0.00 0.13 0.00 62 1010.1
20260507174304 64 211 3.5 5.2 0.00 0.13 0.00 62 1010.0
20260507174205 64 211 3.5 5.2 0.00 0.13 0.00 62 1010.1
20260507173804 64 211 3.5 6.1 0.00 0.13 0.00 62 1010.0
20260507173704 64 210 3.5 6.1 0.00 0.13 0.00 61 1010.0
20260507173604 64 211 3.5 6.1 0.00 0.13 0.00 61 1010.0
20260507173505 64 210 3.5 6.1 0.00 0.13 0.00 61 1010.0
20260507173406 64 209 4.3 6.1 0.00 0.13 0.00 60 1010.0
20260507173204 64 208 4.3 6.1 0.00 0.13 0.00 60 1009.9
20260507173111 65 208 4.3 6.1 0.00 0.13 0.00 61 1009.9
20260507173005 65 208 3.5 5.2 0.00 0.13 0.00 60 1009.9
20260507172904 65 209 3.5 5.2 0.00 0.13 0.00 60 1009.9
20260507172817 65 209 3.5 5.2 0.00 0.13 0.00 59 1009.9
20260507172704 65 209 3.5 5.2 0.00 0.13 0.00 59 1009.9
20260507172504 65 209 3.5 4.3 0.00 0.13 0.00 59 1009.9
20260507172404 65 209 3.5 4.3 0.00 0.13 0.00 58 1009.8
20260507172307 65 209 3.5 4.3 0.00 0.13 0.00 58 1009.8
20260507172203 65 209 3.5 4.3 0.00 0.13 0.00 58 1009.8
20260507172104 65 208 3.5 4.3 0.00 0.13 0.00 58 1009.8
20260507172004 65 208 3.5 4.3 0.00 0.13 0.00 58 1009.8
20260507171903 65 207 3.5 4.3 0.00 0.13 0.00 56 1009.8
20260507171804 65 207 3.5 4.3 0.00 0.13 0.00 56 1009.7
20260507171704 65 207 3.5 5.2 0.00 0.13 0.00 55 1009.8
20260507171604 65 206 3.5 5.2 0.00 0.13 0.00 55 1009.7
20260507171505 65 205 3.5 5.2 0.00 0.13 0.00 55 1009.8
20260507171404 65 205 3.5 5.2 0.00 0.13 0.00 54 1009.7
20260507171304 65 205 3.5 5.2 0.00 0.13 0.00 54 1009.7
20260507171203 66 205 3.5 5.2 0.00 0.13 0.00 54 1009.7
20260507171104 66 204 3.5 5.2 0.00 0.13 0.00 55 1009.7
20260507171004 66 204 3.5 5.2 0.00 0.13 0.00 54 1009.7
20260507170903 66 204 3.5 5.2 0.00 0.13 0.00 54 1009.8
20260507170604 66 200 3.5 5.2 0.00 0.13 0.00 53 1009.7
20260507170504 66 198 3.5 5.2 0.00 0.13 0.00 53 1009.6
20260507170404 66 194 2.6 5.2 0.00 0.13 0.00 53 1009.6
20260507170309 66 196 2.6 5.2 0.00 0.13 0.00 52 1009.6
20260507170204 66 195 2.6 5.2 0.00 0.13 0.00 53 1009.6
20260507170104 67 195 2.6 5.2 0.00 0.13 0.00 52 1009.5
20260507170014 67 193 2.6 5.2 0.00 0.13 0.00 53 1009.6
20260507165905 67 193 2.6 5.2 0.00 0.13 0.00 52 1009.6
20260507165804 67 197 2.6 5.2 0.00 0.13 0.00 52 1009.6
20260507165605 67 206 2.6 5.2 0.00 0.13 0.00 51 1009.5
20260507165504 67 209 2.6 5.2 0.00 0.13 0.00 51 1009.4
20260507165306 67 214 2.6 5.2 0.00 0.13 0.00 51 1009.5
20260507165204 67 220 2.6 5.2 0.00 0.13 0.00 51 1009.6
20260507165104 67 224 2.6 5.2 0.00 0.13 0.00 51 1009.5
20260507165004 67 227 2.6 5.2 0.00 0.13 0.00 50 1009.6
20260507164904 67 232 2.6 5.2 0.00 0.13 0.00 50 1009.5
20260507164804 67 233 1.7 5.2 0.00 0.13 0.00 50 1009.5
20260507164704 68 233 1.7 5.2 0.00 0.13 0.00 50 1009.5
20260507164505 68 244 1.7 5.2 0.00 0.13 0.00 50 1009.5
20260507164407 68 243 1.7 5.2 0.00 0.13 0.00 50 1009.5
20260507164204 68 260 1.7 4.3 0.00 0.13 0.00 49 1009.4
20260507164112 68 265 1.7 4.3 0.00 0.13 0.00 49 1009.5
20260507164004 68 276 1.7 3.5 0.00 0.13 0.00 50 1009.5
20260507163904 68 279 1.7 4.3 0.00 0.13 0.00 50 1009.6
20260507163817 68 283 1.7 4.3 0.00 0.13 0.00 50 1009.6
20260507163704 68 288 1.7 4.3 0.00 0.13 0.00 50 1009.5
20260507163604 68 291 1.7 4.3 0.00 0.13 0.00 50 1009.5
20260507163504 68 300 1.7 4.3 0.00 0.13 0.00 50 1009.5
20260507163404 68 309 1.7 4.3 0.00 0.13 0.00 50 1009.5
20260507163304 68 317 1.7 4.3 0.00 0.13 0.00 50 1009.5
20260507163204 68 323 1.7 4.3 0.00 0.13 0.00 50 1009.5
20260507163103 68 329 1.7 4.3 0.00 0.13 0.00 50 1009.5
20260507163004 68 333 1.7 4.3 0.00 0.13 0.00 52 1009.5
20260507162904 68 334 1.7 3.5 0.00 0.13 0.00 52 1009.5
20260507162704 68 331 1.7 4.3 0.00 0.13 0.00 52 1009.5
20260507162604 68 329 1.7 4.3 0.00 0.13 0.00 52 1009.4
20260507162511 68 327 1.7 4.3 0.00 0.13 0.00 51 1009.3
20260507162404 69 319 1.7 4.3 0.00 0.13 0.00 51 1009.4
20260507162104 69 268 1.7 5.2 0.00 0.13 0.00 49 1009.4
20260507162004 69 253 2.6 5.2 0.00 0.13 0.00 48 1009.4
20260507161904 69 243 2.6 6.1 0.00 0.13 0.00 47 1009.3
20260507161804 70 242 2.6 6.1 0.00 0.13 0.00 47 1009.2
20260507161704 70 237 2.6 6.1 0.00 0.13 0.00 46 1009.2
20260507161504 70 212 2.6 6.1 0.00 0.13 0.00 41 1009.2
20260507161403 70 200 2.6 6.1 0.00 0.13 0.00 41 1009.2
20260507161205 71 142 2.6 6.1 0.00 0.13 0.00 43 1009.1
20260507161104 71 129 2.6 7.8 0.00 0.13 0.00 44 1009.1
20260507161004 71 106 2.6 7.8 0.00 0.13 0.00 44 1009.1
20260507160908 71 101 2.6 7.8 0.00 0.13 0.00 42 1009.1
20260507160803 70 100 2.6 7.8 0.00 0.13 0.00 42 1009.1
20260507160704 70 98 2.6 7.8 0.00 0.13 0.00 41 1009.1
20260507160504 70 91 2.6 7.8 0.00 0.13 0.00 41 1009.1
20260507160404 70 80 2.6 7.8 0.00 0.13 0.00 41 1009.2
20260507160104 70 37 1.7 4.3 0.00 0.13 0.00 42 1009.2
20260507160004 70 48 1.7 6.1 0.00 0.13 0.00 43 1009.1
20260507155803 70 47 2.6 6.1 0.00 0.13 0.00 44 1009.1
20260507155704 70 46 2.6 6.1 0.00 0.13 0.00 44 1009.1
20260507155604 70 51 2.6 7.0 0.00 0.13 0.00 44 1009.1
20260507155505 70 56 2.6 7.0 0.00 0.13 0.00 44 1009.1
20260507155404 70 64 2.6 7.0 0.00 0.13 0.00 44 1009.1
20260507155204 70 80 3.5 7.0 0.00 0.13 0.00 42 1009.2
20260507155103 70 85 3.5 7.0 0.00 0.13 0.00 43 1009.1
20260507155016 71 84 2.6 7.0 0.00 0.13 0.00 43 1009.2
20260507154804 70 70 2.6 7.0 0.00 0.13 0.00 44 1009.1
20260507154604 70 65 2.6 7.0 0.00 0.13 0.00 44 1009.1
20260507154504 70 61 2.6 7.0 0.00 0.13 0.00 44 1009.3
20260507154404 70 57 2.6 7.0 0.00 0.13 0.00 43 1009.2
20260507154304 70 26 1.7 6.1 0.00 0.13 0.00 43 1009.1
20260507154204 70 22 1.7 6.1 0.00 0.13 0.00 44 1009.1
20260507154104 70 15 1.7 5.2 0.00 0.13 0.00 45 1009.1
20260507154005 70 12 0.9 5.2 0.00 0.13 0.00 44 1009.1
20260507153904 70 352 0.9 4.3 0.00 0.13 0.00 44 1009.0
20260507153803 71 316 0.9 4.3 0.00 0.13 0.00 45 1009.1
20260507153703 71 266 0.9 4.3 0.00 0.13 0.00 45 1009.0
20260507153504 71 231 1.7 5.2 0.00 0.13 0.00 44 1009.1
20260507153404 71 235 1.7 5.2 0.00 0.13 0.00 43 1009.1
20260507153304 71 225 1.7 5.2 0.00 0.13 0.00 43 1009.1
20260507153204 71 218 1.7 5.2 0.00 0.13 0.00 43 1009.2
20260507153104 70 218 1.7 5.2 0.00 0.13 0.00 43 1009.2
20260507153005 70 221 1.7 5.2 0.00 0.13 0.00 43 1009.1
20260507152903 70 221 1.7 5.2 0.00 0.13 0.00 43 1009.1
20260507152804 70 217 1.7 5.2 0.00 0.13 0.00 42 1009.2
20260507152704 70 208 1.7 5.2 0.00 0.13 0.00 42 1009.3
20260507152604 70 207 2.6 6.1 0.00 0.13 0.00 43 1009.3
20260507152504 70 207 2.6 7.0 0.00 0.13 0.00 44 1009.2
20260507152404 70 208 2.6 7.8 0.00 0.13 0.00 43 1009.2
20260507152306 70 208 3.5 7.8 0.00 0.13 0.00 43 1009.2
20260507152203 70 208 3.5 7.8 0.00 0.13 0.00 44 1009.2
20260507151904 69 207 3.5 7.8 0.00 0.13 0.00 43 1009.2
20260507151803 69 212 3.5 7.8 0.00 0.13 0.00 43 1009.2
20260507151703 70 210 3.5 7.8 0.00 0.13 0.00 43 1009.3
20260507151504 70 212 3.5 7.8 0.00 0.13 0.00 43 1009.2
20260507151411 70 207 3.5 7.0 0.00 0.13 0.00 43 1009.3
20260507151304 70 209 3.5 7.0 0.00 0.13 0.00 44 1009.2
20260507151204 70 209 3.5 7.0 0.00 0.13 0.00 44 1009.2
20260507151104 70 208 4.3 7.0 0.00 0.13 0.00 44 1009.2
20260507150903 70 196 4.3 7.8 0.00 0.13 0.00 44 1009.2
20260507150804 70 189 4.3 7.8 0.00 0.13 0.00 44 1009.3
20260507150704 70 191 4.3 7.8 0.00 0.13 0.00 45 1009.3
20260507150504 69 192 4.3 7.8 0.00 0.13 0.00 44 1009.4
20260507150404 69 192 4.3 7.8 0.00 0.13 0.00 45 1009.3
20260507150204 69 182 3.5 7.8 0.00 0.13 0.00 45 1009.3
20260507150005 70 172 3.5 7.0 0.00 0.13 0.00 44 1009.3
20260507145903 70 168 2.6 7.0 0.00 0.13 0.00 44 1009.3
20260507145804 70 164 2.6 7.0 0.00 0.13 0.00 44 1009.3
20260507145704 70 158 2.6 7.0 0.00 0.13 0.00 44 1009.3
20260507145604 70 146 2.6 7.0 0.00 0.13 0.00 45 1009.3
20260507145504 70 131 2.6 7.0 0.00 0.13 0.00 46 1009.3
20260507145404 70 126 2.6 7.0 0.00 0.13 0.00 45 1009.4
20260507145306 70 125 2.6 7.0 0.00 0.13 0.00 45 1009.4
20260507145103 70 140 2.6 6.1 0.00 0.13 0.00 45 1009.4
20260507145004 70 143 2.6 4.3 0.00 0.13 0.00 46 1009.4
20260507144904 70 148 1.7 4.3 0.00 0.13 0.00 46 1009.3
20260507144804 70 150 1.7 4.3 0.00 0.13 0.00 45 1009.3
20260507144704 70 157 1.7 4.3 0.00 0.13 0.00 46 1009.4
20260507144603 70 171 1.7 4.3 0.00 0.13 0.00 45 1009.4
20260507144504 70 179 1.7 4.3 0.00 0.13 0.00 46 1009.3
20260507144403 70 182 1.7 4.3 0.00 0.13 0.00 46 1009.4
20260507144203 70 192 1.7 4.3 0.00 0.13 0.00 46 1009.4
20260507144103 70 175 1.7 4.3 0.00 0.13 0.00 47 1009.4
20260507144004 70 167 1.7 4.3 0.00 0.13 0.00 47 1009.4
20260507143904 70 167 1.7 4.3 0.00 0.13 0.00 47 1009.4
20260507143804 70 175 1.7 4.3 0.00 0.13 0.00 47 1009.3
20260507143704 69 165 1.7 4.3 0.00 0.13 0.00 47 1009.5
20260507143604 69 132 0.9 4.3 0.00 0.13 0.00 48 1009.4
20260507143505 69 122 0.9 4.3 0.00 0.13 0.00 46 1009.4
20260507143404 70 126 0.9 4.3 0.00 0.13 0.00 47 1009.4
20260507143303 70 155 0.9 4.3 0.00 0.13 0.00 47 1009.4
20260507143104 70 182 0.9 4.3 0.00 0.13 0.00 46 1009.4
20260507143004 70 198 0.0 1.7 0.00 0.13 0.00 46 1009.4
20260507142904 70 182 0.9 1.7 0.00 0.13 0.00 47 1009.3
20260507142803 70 170 0.9 3.5 0.00 0.13 0.00 46 1009.5
20260507142703 70 167 0.9 4.3 0.00 0.13 0.00 46 1009.3
20260507142603 70 181 0.9 6.1 0.00 0.13 0.00 46 1009.5
20260507142504 70 191 1.7 6.1 0.00 0.13 0.00 47 1009.5
20260507142306 70 188 1.7 6.1 0.00 0.13 0.00 47 1009.4
20260507142104 69 185 1.7 6.1 0.00 0.13 0.00 48 1009.5
20260507142004 69 182 2.6 6.1 0.00 0.13 0.00 47 1009.5
20260507141804 69 168 2.6 6.1 0.00 0.13 0.00 46 1009.5
20260507141703 69 156 1.7 6.1 0.00 0.13 0.00 46 1009.5
20260507141604 70 144 1.7 6.1 0.00 0.13 0.00 46 1009.5
20260507141404 70 107 1.7 3.5 0.00 0.13 0.00 46 1009.6
20260507141304 70 102 1.7 4.3 0.00 0.13 0.00 47 1009.6
20260507141203 69 94 1.7 4.3 0.00 0.13 0.00 46 1009.7
20260507141103 69 78 1.7 4.3 0.00 0.13 0.00 46 1009.5
20260507141006 69 73 1.7 4.3 0.00 0.13 0.00 45 1009.6
20260507140903 70 75 1.7 5.2 0.00 0.13 0.00 45 1009.5
20260507140804 71 75 1.7 5.2 0.00 0.13 0.00 45 1009.6
20260507140604 71 74 1.7 5.2 0.00 0.13 0.00 47 1009.6
20260507140504 71 72 1.7 5.2 0.00 0.13 0.00 47 1009.7
20260507140404 70 70 2.6 5.2 0.00 0.13 0.00 47 1009.6
20260507140304 70 68 1.7 5.2 0.00 0.13 0.00 48 1009.7
20260507140103 70 71 1.7 5.2 0.00 0.13 0.00 47 1009.7
20260507135903 70 65 1.7 4.3 0.00 0.13 0.00 48 1009.6
20260507135804 69 59 1.7 4.3 0.00 0.13 0.00 48 1009.7
20260507135704 69 51 1.7 4.3 0.00 0.13 0.00 48 1009.8
20260507135504 69 34 0.9 4.3 0.00 0.13 0.00 48 1009.8
20260507135404 69 20 0.9 4.3 0.00 0.13 0.00 49 1009.8
20260507135306 69 18 0.9 4.3 0.00 0.13 0.00 48 1009.8
20260507135204 69 26 1.7 4.3 0.00 0.13 0.00 48 1009.8
20260507135104 69 24 1.7 4.3 0.00 0.13 0.00 49 1009.8
20260507135004 69 23 1.7 4.3 0.00 0.13 0.00 48 1009.8
20260507134904 69 20 1.7 3.5 0.00 0.13 0.00 48 1009.9
20260507134804 69 20 1.7 3.5 0.00 0.13 0.00 48 1009.9
20260507134704 69 27 1.7 4.3 0.00 0.13 0.00 48 1009.9
20260507134504 69 30 1.7 5.2 0.00 0.13 0.00 49 1009.9
20260507134404 69 31 1.7 5.2 0.00 0.13 0.00 49 1009.9
20260507134304 69 42 1.7 6.1 0.00 0.13 0.00 49 1009.9
20260507134204 69 50 2.6 7.0 0.00 0.13 0.00 49 1009.9
20260507134004 69 58 2.6 7.0 0.00 0.13 0.00 49 1010.0
20260507133804 69 64 3.5 7.0 0.00 0.13 0.00 48 1010.0
20260507133604 69 71 2.6 7.0 0.00 0.13 0.00 49 1010.0
20260507133404 69 77 3.5 7.0 0.00 0.13 0.00 49 1010.0
20260507133304 69 75 2.6 7.0 0.00 0.13 0.00 49 1010.0
20260507133203 69 67 2.6 7.0 0.00 0.13 0.00 48 1010.0
20260507133103 69 60 1.7 5.2 0.00 0.13 0.00 47 1010.1
20260507133004 69 64 2.6 7.0 0.00 0.13 0.00 48 1010.1
20260507132903 69 68 2.6 7.8 0.00 0.13 0.00 49 1010.1
20260507132804 69 65 2.6 7.8 0.00 0.13 0.00 49 1010.1
20260507132704 69 70 2.6 7.8 0.00 0.13 0.00 49 1010.1
20260507132604 69 69 3.5 7.8 0.00 0.13 0.00 48 1010.1
20260507132505 69 69 2.6 7.8 0.00 0.13 0.00 50 1010.2
20260507132404 69 70 2.6 7.8 0.00 0.13 0.00 50 1010.3
20260507132307 68 71 2.6 7.8 0.00 0.13 0.00 50 1010.2
20260507132104 68 79 3.5 7.8 0.00 0.13 0.00 49 1010.3
20260507131905 69 76 2.6 7.0 0.00 0.13 0.00 48 1010.2
20260507131803 69 75 2.6 7.0 0.00 0.13 0.00 49 1010.2
20260507131704 69 79 2.6 7.0 0.00 0.13 0.00 49 1010.2
20260507131604 69 77 2.6 7.0 0.00 0.13 0.00 48 1010.2
20260507131304 69 89 2.6 6.1 0.00 0.13 0.00 50 1010.2
20260507131104 69 112 2.6 6.1 0.00 0.13 0.00 51 1010.3
20260507131005 68 128 2.6 7.0 0.00 0.13 0.00 51 1010.3
20260507130904 68 140 3.5 7.0 0.00 0.13 0.00 51 1010.4
20260507130804 68 150 3.5 7.0 0.00 0.13 0.00 51 1010.4
20260507130710 68 155 2.6 7.0 0.00 0.13 0.00 51 1010.3
20260507130504 67 164 3.5 7.0 0.00 0.13 0.00 50 1010.3
20260507130413 67 169 3.5 7.8 0.00 0.13 0.00 50 1010.4
20260507130304 67 173 3.5 7.8 0.00 0.13 0.00 51 1010.5
20260507130204 67 181 4.3 7.8 0.00 0.13 0.00 50 1010.3
20260507125904 68 189 3.5 7.8 0.00 0.13 0.00 50 1010.3
20260507125804 67 194 3.5 7.8 0.00 0.13 0.00 50 1010.4
20260507125703 67 198 3.5 7.8 0.00 0.13 0.00 50 1010.4
20260507125504 68 210 3.5 7.8 0.00 0.13 0.00 50 1010.4
20260507125204 68 202 2.6 7.8 0.00 0.13 0.00 49 1010.4
20260507124904 68 174 2.6 7.0 0.00 0.13 0.00 49 1010.4
20260507124804 68 168 2.6 7.0 0.00 0.13 0.00 49 1010.4
20260507124704 68 167 2.6 7.8 0.00 0.13 0.00 48 1010.4
20260507124505 68 167 3.5 7.8 0.00 0.13 0.00 49 1010.4
20260507124404 68 169 3.5 7.8 0.00 0.13 0.00 50 1010.4
20260507124304 68 168 3.5 7.8 0.00 0.13 0.00 50 1010.4
20260507124204 68 168 3.5 7.8 0.00 0.13 0.00 49 1010.3
20260507124104 68 173 2.6 7.8 0.00 0.13 0.00 52 1010.3
20260507124004 68 172 2.6 7.8 0.00 0.13 0.00 51 1010.4
20260507123903 67 170 2.6 7.8 0.00 0.13 0.00 51 1010.5
20260507123804 67 164 2.6 7.8 0.00 0.13 0.00 51 1010.4
20260507123704 68 152 2.6 7.8 0.00 0.13 0.00 52 1010.4
20260507123603 68 129 2.6 6.1 0.00 0.13 0.00 53 1010.4
20260507123505 68 105 2.6 7.0 0.00 0.13 0.00 53 1010.4
20260507123404 68 98 2.6 7.0 0.00 0.13 0.00 52 1010.4
20260507123304 68 96 2.6 7.8 0.00 0.13 0.00 53 1010.4
20260507123203 68 94 3.5 8.7 0.00 0.13 0.00 53 1010.4
20260507123104 67 95 3.5 8.7 0.00 0.13 0.00 53 1010.4
20260507123004 67 93 3.5 8.7 0.00 0.13 0.00 54 1010.5
20260507122904 67 90 3.5 8.7 0.00 0.13 0.00 54 1010.4
20260507122804 67 89 3.5 8.7 0.00 0.13 0.00 54 1010.4
20260507122708 67 90 3.5 8.7 0.00 0.13 0.00 55 1010.4
20260507122604 67 90 3.5 8.7 0.00 0.13 0.00 55 1010.3
20260507122504 67 90 3.5 8.7 0.00 0.13 0.00 55 1010.3
20260507122203 67 87 3.5 8.7 0.00 0.13 0.00 55 1010.2
20260507122116 67 81 3.5 8.7 0.00 0.13 0.00 55 1010.4
20260507121904 67 75 3.5 8.7 0.00 0.13 0.00 55 1010.4
20260507121603 67 81 4.3 9.6 0.00 0.13 0.00 55 1010.5
20260507121505 66 80 4.3 9.6 0.00 0.13 0.00 57 1010.5
20260507121404 66 81 5.2 9.6 0.00 0.13 0.00 57 1010.5
20260507121303 65 83 5.2 9.6 0.00 0.13 0.00 58 1010.6
20260507121103 65 86 6.1 9.6 0.00 0.13 0.00 57 1010.6
20260507121005 65 87 6.1 9.6 0.00 0.13 0.00 56 1010.6
20260507120904 65 88 5.2 9.6 0.00 0.13 0.00 56 1010.7
20260507120804 65 87 5.2 9.6 0.00 0.13 0.00 56 1010.8
20260507120704 65 87 4.3 8.7 0.00 0.13 0.00 57 1010.7
20260507120604 65 87 4.3 8.7 0.00 0.13 0.00 57 1010.7
20260507120504 65 88 4.3 8.7 0.00 0.13 0.00 56 1010.7
20260507120404 65 90 3.5 8.7 0.00 0.13 0.00 56 1010.8
20260507120304 65 88 3.5 8.7 0.00 0.13 0.00 56 1010.7
20260507120104 65 81 3.5 7.8 0.00 0.13 0.00 56 1010.6
20260507120004 65 81 3.5 7.8 0.00 0.13 0.00 56 1010.7
20260507115904 65 81 3.5 8.7 0.00 0.13 0.00 58 1010.7
20260507115803 65 79 3.5 8.7 0.00 0.13 0.00 57 1010.8
20260507115704 65 79 3.5 8.7 0.00 0.13 0.00 57 1010.7
20260507115603 65 79 3.5 8.7 0.00 0.13 0.00 57 1010.8
20260507115506 65 79 3.5 8.7 0.00 0.13 0.00 58 1010.8
20260507115306 65 82 4.3 8.7 0.00 0.13 0.00 57 1010.8
20260507115205 65 85 4.3 8.7 0.00 0.13 0.00 56 1010.9
20260507115103 65 87 3.5 8.7 0.00 0.13 0.00 56 1010.7
20260507115004 66 90 3.5 8.7 0.00 0.13 0.00 56 1010.7
20260507114904 66 97 2.6 7.0 0.00 0.13 0.00 56 1010.7
20260507114804 66 98 2.6 7.0 0.00 0.13 0.00 56 1010.8
20260507114704 66 99 2.6 7.0 0.00 0.13 0.00 56 1010.8
20260507114604 66 102 2.6 7.0 0.00 0.13 0.00 55 1010.8
20260507114504 66 109 2.6 7.0 0.00 0.13 0.00 54 1010.8
20260507114403 67 110 2.6 6.1 0.00 0.13 0.00 54 1010.8
20260507114304 67 114 2.6 5.2 0.00 0.13 0.00 55 1010.7
20260507114203 67 114 2.6 5.2 0.00 0.13 0.00 55 1010.7
20260507114104 67 111 2.6 7.0 0.00 0.13 0.00 55 1010.8
20260507114004 67 108 2.6 7.0 0.00 0.13 0.00 55 1010.7
20260507113904 67 102 2.6 7.0 0.00 0.13 0.00 55 1010.8
20260507113704 67 103 2.6 7.0 0.00 0.13 0.00 55 1010.9
20260507113603 67 99 2.6 7.0 0.00 0.13 0.00 56 1010.8
20260507113504 67 92 2.6 7.0 0.00 0.13 0.00 56 1010.9
20260507113404 66 89 2.6 7.0 0.00 0.13 0.00 57 1011.0
20260507113304 66 80 2.6 7.0 0.00 0.13 0.00 56 1010.9
20260507113204 66 72 3.5 7.0 0.00 0.13 0.00 56 1010.8
20260507113104 66 61 3.5 7.0 0.00 0.13 0.00 57 1011.0
20260507113004 66 57 3.5 7.0 0.00 0.13 0.00 56 1011.0
20260507112903 66 53 3.5 7.0 0.00 0.13 0.00 56 1011.1
20260507112804 65 51 3.5 7.8 0.00 0.13 0.00 57 1011.1
20260507112703 65 52 3.5 7.8 0.00 0.13 0.00 57 1011.0
20260507112505 64 56 3.5 7.8 0.00 0.13 0.00 57 1011.0
20260507112311 65 64 4.3 7.8 0.00 0.13 0.00 56 1011.0
20260507112204 65 69 4.3 8.7 0.00 0.13 0.00 58 1011.1
20260507112104 64 72 5.2 8.7 0.00 0.13 0.00 59 1011.2
20260507112017 64 74 5.2 8.7 0.00 0.13 0.00 59 1011.1
20260507111905 64 77 5.2 8.7 0.00 0.13 0.00 58 1011.2
20260507111603 64 78 5.2 9.6 0.00 0.13 0.00 57 1011.2
20260507111504 64 78 5.2 9.6 0.00 0.13 0.00 56 1011.2
20260507111304 64 82 5.2 10.4 0.00 0.13 0.00 57 1011.2
20260507111204 64 82 5.2 10.4 0.00 0.13 0.00 58 1011.2
20260507111104 64 83 5.2 10.4 0.00 0.13 0.00 57 1011.2
20260507111004 64 84 5.2 10.4 0.00 0.13 0.00 58 1011.2
20260507110804 64 87 6.1 10.4 0.00 0.13 0.00 59 1011.3
20260507110704 63 86 6.1 10.4 0.00 0.13 0.00 59 1011.3
20260507110504 63 90 6.1 10.4 0.00 0.13 0.00 58 1011.2
20260507110303 63 91 5.2 10.4 0.00 0.13 0.00 57 1011.3
20260507110203 63 91 4.3 9.6 0.00 0.13 0.00 57 1011.3
20260507110107 63 92 4.3 8.7 0.00 0.13 0.00 57 1011.3
20260507110005 63 90 4.3 8.7 0.00 0.13 0.00 57 1011.4
20260507105904 63 92 4.3 9.6 0.00 0.13 0.00 58 1011.4
20260507105813 63 90 4.3 9.6 0.00 0.13 0.00 58 1011.4
20260507105704 63 93 4.3 9.6 0.00 0.13 0.00 58 1011.5
20260507105609 63 90 5.2 10.4 0.00 0.13 0.00 59 1011.4
20260507105523 63 88 5.2 10.4 0.00 0.13 0.00 59 1011.4
20260507105404 63 89 6.1 10.4 0.00 0.13 0.00 59 1011.5
20260507105306 63 90 6.1 10.4 0.00 0.13 0.00 58 1011.5
20260507105103 63 92 5.2 10.4 0.00 0.13 0.00 59 1011.5
20260507105004 63 90 6.1 10.4 0.00 0.13 0.00 60 1011.5
20260507104904 63 86 5.2 10.4 0.00 0.13 0.00 60 1011.4
20260507104804 63 85 6.1 10.4 0.00 0.13 0.00 60 1011.5
20260507104703 63 82 6.1 10.4 0.00 0.13 0.00 59 1011.5
20260507104604 64 83 5.2 9.6 0.00 0.13 0.00 59 1011.5
20260507104504 64 86 5.2 9.6 0.00 0.13 0.00 59 1011.5
20260507104403 64 85 5.2 9.6 0.00 0.13 0.00 59 1011.5
20260507104303 64 82 5.2 9.6 0.00 0.13 0.00 60 1011.5
20260507104205 64 81 5.2 9.6 0.00 0.13 0.00 59 1011.4
20260507104104 64 82 5.2 9.6 0.00 0.13 0.00 58 1011.4
20260507104004 64 84 5.2 9.6 0.00 0.13 0.00 59 1011.5
20260507103911 64 86 5.2 9.6 0.00 0.13 0.00 59 1011.4
20260507103804 64 89 5.2 9.6 0.00 0.13 0.00 59 1011.5
20260507103616 64 90 5.2 9.6 0.00 0.13 0.00 58 1011.5
20260507103504 64 87 5.2 9.6 0.00 0.13 0.00 58 1011.5
20260507103404 64 87 4.3 9.6 0.00 0.13 0.00 58 1011.6
20260507103303 64 86 4.3 9.6 0.00 0.13 0.00 57 1011.5
20260507103203 64 83 4.3 9.6 0.00 0.13 0.00 57 1011.5
20260507103103 64 80 4.3 9.6 0.00 0.13 0.00 58 1011.4
20260507102904 64 83 4.3 9.6 0.00 0.13 0.00 57 1011.6
20260507102803 64 81 4.3 8.7 0.00 0.13 0.00 58 1011.5
20260507102704 64 78 4.3 8.7 0.00 0.13 0.00 58 1011.5
20260507102603 64 76 4.3 8.7 0.00 0.13 0.00 59 1011.6
20260507102403 63 78 5.2 8.7 0.00 0.13 0.00 60 1011.7
20260507102306 63 81 5.2 8.7 0.00 0.13 0.00 60 1011.7
20260507102204 63 83 5.2 8.7 0.00 0.13 0.00 59 1011.7
20260507102104 63 84 5.2 9.6 0.00 0.13 0.00 59 1011.7
20260507102009 63 84 5.2 9.6 0.00 0.13 0.00 59 1011.7
20260507101905 63 84 5.2 9.6 0.00 0.13 0.00 58 1011.7
20260507101715 64 85 5.2 9.6 0.00 0.13 0.00 58 1011.6
20260507101604 64 86 5.2 9.6 0.00 0.13 0.00 58 1011.6
20260507101506 64 88 5.2 9.6 0.00 0.13 0.00 58 1011.6
20260507101418 64 90 5.2 9.6 0.00 0.13 0.00 59 1011.6
20260507101203 63 90 5.2 9.6 0.00 0.13 0.00 58 1011.6
20260507101103 64 90 5.2 8.7 0.00 0.13 0.00 58 1011.7
20260507100904 64 92 5.2 8.7 0.00 0.13 0.00 58 1011.6
20260507100803 64 94 4.3 8.7 0.00 0.13 0.00 57 1011.6
20260507100603 64 95 4.3 7.8 0.00 0.13 0.00 58 1011.7
20260507100504 64 94 4.3 7.8 0.00 0.13 0.00 58 1011.7
20260507100404 64 92 4.3 7.8 0.00 0.13 0.00 59 1011.6
20260507100304 64 89 4.3 7.8 0.00 0.13 0.00 59 1011.6
20260507100205 64 88 3.5 7.0 0.00 0.13 0.00 58 1011.6
20260507100104 64 86 3.5 7.0 0.00 0.13 0.00 59 1011.7
20260507100005 64 86 3.5 7.8 0.00 0.13 0.00 59 1011.7
20260507095905 63 84 4.3 7.8 0.00 0.13 0.00 59 1011.8
20260507095803 63 84 4.3 7.8 0.00 0.13 0.00 59 1011.7
20260507095703 63 85 4.3 7.8 0.00 0.13 0.00 59 1011.7
20260507095604 63 84 4.3 7.8 0.00 0.13 0.00 59 1011.8
20260507095504 62 82 4.3 7.8 0.00 0.13 0.00 60 1011.8
20260507095404 62 81 5.2 7.8 0.00 0.13 0.00 61 1011.8
20260507095306 62 81 5.2 7.8 0.00 0.13 0.00 60 1011.7
20260507095204 62 83 5.2 7.8 0.00 0.13 0.00 59 1011.8
20260507095004 62 83 6.1 7.8 0.00 0.13 0.00 59 1011.9
20260507094903 62 82 5.2 7.8 0.00 0.13 0.00 60 1011.9
20260507094703 62 80 5.2 7.8 0.00 0.13 0.00 58 1011.8
20260507094604 62 80 5.2 7.8 0.00 0.13 0.00 58 1011.9
20260507094404 62 81 5.2 7.8 0.00 0.13 0.00 60 1011.9
20260507094309 62 81 4.3 7.8 0.00 0.13 0.00 59 1011.8
20260507094204 62 80 4.3 7.8 0.00 0.13 0.00 58 1011.9
20260507094104 62 76 4.3 7.8 0.00 0.13 0.00 59 1011.8
20260507094015 62 76 3.5 7.8 0.00 0.13 0.00 61 1011.9
20260507093903 62 78 3.5 7.8 0.00 0.13 0.00 60 1011.9
20260507093803 62 79 3.5 7.8 0.00 0.13 0.00 61 1011.9
20260507093703 62 75 3.5 7.8 0.00 0.13 0.00 60 1011.8
20260507093604 62 76 3.5 7.8 0.00 0.13 0.00 61 1011.9
20260507093504 62 76 2.6 7.0 0.00 0.13 0.00 61 1011.8
20260507093404 62 80 2.6 7.0 0.00 0.13 0.00 61 1011.9
20260507093303 62 84 3.5 7.0 0.00 0.13 0.00 61 1011.8
20260507093204 62 86 3.5 7.0 0.00 0.13 0.00 61 1011.9
20260507093104 62 90 3.5 7.0 0.00 0.13 0.00 61 1011.9
20260507093004 62 95 3.5 7.0 0.00 0.13 0.00 60 1011.8
20260507092903 62 96 3.5 7.0 0.00 0.13 0.00 60 1011.8
20260507092804 62 99 3.5 7.0 0.00 0.13 0.00 60 1011.8
20260507092704 62 100 3.5 7.0 0.00 0.13 0.00 60 1011.7
20260507092604 62 98 4.3 7.0 0.00 0.13 0.00 59 1011.8
20260507092504 62 102 3.5 7.0 0.00 0.13 0.00 59 1011.7
20260507092409 62 102 3.5 7.0 0.00 0.13 0.00 59 1011.7
20260507092004 62 94 3.5 7.8 0.00 0.13 0.00 59 1011.9
20260507091804 62 87 3.5 7.8 0.00 0.13 0.00 61 1011.8
20260507091703 62 91 3.5 7.8 0.00 0.13 0.00 61 1011.8
20260507091603 62 91 2.6 7.8 0.00 0.13 0.00 60 1011.7
20260507091504 62 90 2.6 7.8 0.00 0.13 0.00 62 1011.8
20260507091404 62 92 2.6 7.8 0.00 0.13 0.00 62 1011.7
20260507091304 62 96 2.6 7.8 0.00 0.13 0.00 61 1011.7
20260507091203 62 100 1.7 5.2 0.00 0.13 0.00 62 1011.7
20260507091104 62 105 1.7 5.2 0.00 0.13 0.00 62 1011.7
20260507090904 62 113 1.7 5.2 0.00 0.13 0.00 62 1011.7
20260507090803 62 110 1.7 5.2 0.00 0.13 0.00 61 1011.8
20260507090703 62 104 1.7 4.3 0.00 0.13 0.00 61 1011.7
20260507090604 62 111 1.7 4.3 0.00 0.13 0.00 61 1011.7
20260507090404 62 97 1.7 6.1 0.00 0.13 0.00 64 1011.8
20260507090304 62 90 1.7 6.1 0.00 0.13 0.00 65 1011.7
20260507090204 62 90 1.7 6.1 0.00 0.13 0.00 66 1011.8
20260507090103 61 90 1.7 6.1 0.00 0.13 0.00 66 1011.7
20260507090005 61 87 1.7 6.1 0.00 0.13 0.00 65 1011.8
20260507085903 61 88 1.7 6.1 0.00 0.13 0.00 66 1011.8
20260507085803 61 88 1.7 6.1 0.00 0.13 0.00 65 1011.8
20260507085604 62 77 1.7 6.1 0.00 0.13 0.00 66 1011.8
20260507085505 61 68 0.9 6.1 0.00 0.13 0.00 67 1011.9
20260507085404 61 40 0.9 3.5 0.00 0.13 0.00 68 1011.8
20260507085308 61 34 0.9 2.6 0.00 0.13 0.00 68 1011.8
20260507085104 61 28 0.9 2.6 0.00 0.13 0.00 66 1011.8
20260507085015 61 14 0.9 2.6 0.00 0.13 0.00 65 1011.8
20260507084803 61 335 0.9 3.5 0.00 0.13 0.00 67 1011.8
20260507084703 61 331 0.9 3.5 0.00 0.13 0.00 67 1011.8
20260507084504 60 326 0.9 3.5 0.00 0.13 0.00 68 1011.9
20260507084404 60 327 0.9 3.5 0.00 0.13 0.00 69 1011.8
20260507084303 60 328 1.7 3.5 0.00 0.13 0.00 70 1011.8
20260507084104 59 332 1.7 3.5 0.00 0.13 0.00 69 1011.9
20260507084005 59 339 1.7 3.5 0.00 0.13 0.00 69 1012.0
20260507083904 59 345 1.7 3.5 0.00 0.13 0.00 69 1011.8
20260507083803 60 350 1.7 3.5 0.00 0.13 0.00 68 1011.9
20260507083703 60 353 1.7 4.3 0.00 0.13 0.00 69 1011.8
20260507083605 60 3 1.7 4.3 0.00 0.13 0.00 69 1011.8
20260507083403 60 4 1.7 4.3 0.00 0.13 0.00 68 1011.8
20260507083304 60 3 1.7 4.3 0.00 0.13 0.00 68 1011.8
20260507083203 60 4 1.7 4.3 0.00 0.13 0.00 68 1011.9
20260507083105 59 2 2.6 4.3 0.00 0.13 0.00 68 1011.8
20260507083004 59 358 1.7 4.3 0.00 0.13 0.00 68 1011.9
20260507082905 59 359 2.6 4.3 0.00 0.13 0.00 69 1011.8
20260507082810 59 4 2.6 4.3 0.00 0.13 0.00 69 1011.9
20260507082704 59 9 1.7 4.3 0.00 0.13 0.00 68 1011.9
20260507082516 59 13 1.7 4.3 0.00 0.13 0.00 69 1011.9
20260507082404 59 13 1.7 4.3 0.00 0.13 0.00 69 1011.9
20260507082306 59 13 1.7 4.3 0.00 0.13 0.00 69 1011.9
20260507082103 58 13 1.7 5.2 0.00 0.13 0.00 69 1011.9
20260507082004 58 9 2.6 5.2 0.00 0.13 0.00 69 1011.9
20260507081904 58 3 2.6 5.2 0.00 0.13 0.00 69 1011.9
20260507081803 58 357 2.6 6.1 0.00 0.13 0.00 69 1011.9
20260507081605 59 349 3.5 6.1 0.00 0.13 0.00 69 1011.9
20260507081504 58 347 3.5 6.1 0.00 0.13 0.00 69 1011.9
20260507081404 58 346 3.5 6.1 0.00 0.13 0.00 68 1012.0
20260507081304 58 346 3.5 6.1 0.00 0.13 0.00 68 1012.0
20260507081203 58 347 3.5 6.1 0.00 0.13 0.00 68 1012.0
20260507081104 58 347 3.5 6.1 0.00 0.13 0.00 68 1012.0
20260507080904 58 346 3.5 7.0 0.00 0.13 0.00 69 1011.9
20260507080804 58 348 3.5 7.0 0.00 0.13 0.00 70 1011.9
20260507080704 58 348 2.6 7.0 0.00 0.13 0.00 70 1011.9
20260507080603 58 349 2.6 7.0 0.00 0.13 0.00 70 1011.9
20260507080404 58 349 3.5 7.0 0.00 0.13 0.00 69 1011.9
20260507080304 58 349 3.5 7.0 0.00 0.13 0.00 70 1012.0
20260507080104 58 346 3.5 7.0 0.00 0.13 0.00 70 1012.0
20260507080004 57 349 3.5 7.0 0.00 0.13 0.00 70 1012.0
20260507075904 57 352 3.5 7.0 0.00 0.13 0.00 69 1012.0
20260507075705 57 352 4.3 7.0 0.00 0.13 0.00 70 1011.9
20260507075603 57 354 4.3 7.0 0.00 0.13 0.00 71 1012.0
20260507075504 57 356 4.3 7.0 0.00 0.13 0.00 71 1012.1
20260507075404 56 1 4.3 7.0 0.00 0.13 0.00 71 1012.0
20260507075306 56 2 4.3 7.0 0.00 0.13 0.00 72 1012.1
20260507075204 56 4 4.3 7.0 0.00 0.13 0.00 72 1012.1
20260507075104 56 5 4.3 7.0 0.00 0.13 0.00 73 1012.1
20260507074809 56 8 3.5 6.1 0.00 0.13 0.00 73 1012.0
20260507074704 56 10 3.5 6.1 0.00 0.13 0.00 74 1012.0
20260507074604 56 9 3.5 6.1 0.00 0.13 0.00 73 1012.0
20260507074515 56 10 3.5 6.1 0.00 0.13 0.00 73 1012.1
20260507074403 56 8 3.5 6.1 0.00 0.13 0.00 73 1012.0
20260507074304 56 8 3.5 6.1 0.00 0.13 0.00 73 1012.1
20260507074204 56 11 2.6 6.1 0.00 0.13 0.00 74 1012.1
20260507074103 56 16 2.6 5.2 0.00 0.13 0.00 74 1012.0
20260507074004 56 18 2.6 5.2 0.00 0.13 0.00 74 1012.1
20260507073904 56 18 2.6 5.2 0.00 0.13 0.00 75 1012.1
20260507073604 56 27 2.6 5.2 0.00 0.13 0.00 75 1012.1
20260507073503 56 24 2.6 4.3 0.00 0.13 0.00 76 1012.1
20260507073404 56 25 2.6 4.3 0.00 0.13 0.00 77 1012.2
20260507073209 55 21 2.6 4.3 0.00 0.13 0.00 77 1012.2
20260507073104 55 16 2.6 5.2 0.00 0.13 0.00 78 1012.3
20260507073004 55 10 2.6 5.2 0.00 0.13 0.00 78 1012.3
20260507072915 55 10 2.6 5.2 0.00 1.44 0.00 77 1012.3
20260507072704 55 3 2.6 5.2 0.00 1.44 0.00 77 1012.3
20260507072603 55 356 2.6 5.2 0.00 1.44 0.00 79 1012.3
20260507072504 55 355 2.6 5.2 0.00 1.44 0.00 79 1012.3
20260507072404 55 353 2.6 5.2 0.00 1.48 0.00 79 1012.3
20260507072306 54 353 2.6 5.2 0.00 1.48 0.00 79 1012.3
20260507072204 54 350 2.6 5.2 0.00 1.48 0.00 78 1012.2
20260507072104 55 350 2.6 6.1 0.00 1.48 0.00 78 1012.3
20260507072004 55 348 2.6 6.1 0.00 1.48 0.00 79 1012.3
20260507071904 55 343 2.6 6.1 0.00 1.48 0.00 79 1012.1
20260507071704 55 341 1.7 6.1 0.00 1.48 0.00 80 1012.2
20260507071609 54 344 2.6 6.1 0.00 1.48 0.00 80 1012.3
20260507071504 54 345 2.6 6.1 0.00 1.48 0.00 80 1012.4
20260507071403 54 348 2.6 6.1 0.00 1.48 0.00 80 1012.3
20260507071203 54 350 3.5 6.1 0.00 1.48 0.00 79 1012.3
20260507071104 54 349 3.5 7.0 0.00 1.48 0.00 80 1012.4
20260507071004 54 352 3.5 7.0 0.00 1.48 0.00 81 1012.3
20260507070904 54 356 3.5 7.0 0.00 1.48 0.00 81 1012.3
20260507070804 54 358 3.5 7.0 0.00 1.48 0.00 81 1012.3
20260507070703 53 359 3.5 7.0 0.00 1.48 0.00 81 1012.4
20260507070604 53 1 3.5 7.0 0.00 1.48 0.00 81 1012.3
20260507070503 53 1 3.5 7.0 0.00 1.48 0.00 82 1012.3
20260507070403 53 359 3.5 7.0 0.00 1.52 0.00 81 1012.2
20260507070303 53 359 3.5 7.0 0.00 1.52 0.00 82 1012.3
20260507070204 53 359 3.5 7.0 0.00 1.52 0.00 82 1012.3
20260507070104 53 2 3.5 6.1 0.00 1.52 0.00 82 1012.3
20260507070007 53 359 2.6 6.1 0.00 1.52 0.00 82 1012.3
20260507065803 53 1 3.5 7.0 0.00 1.52 0.00 82 1012.2
20260507065708 53 359 3.5 7.8 0.00 1.52 0.00 82 1012.2
20260507065604 53 359 3.5 7.8 0.00 1.52 0.00 82 1012.2
20260507065504 53 357 3.5 7.8 0.00 1.52 0.00 82 1012.2
20260507065415 53 357 3.5 7.8 0.00 1.52 0.00 82 1012.1
20260507065306 53 356 3.5 7.8 0.00 1.52 0.00 82 1012.1
20260507065204 53 354 3.5 7.8 0.00 1.52 0.00 82 1012.2
20260507065103 53 354 3.5 7.8 0.00 1.52 0.00 82 1012.2
20260507065004 53 353 3.5 7.8 0.00 1.52 0.00 82 1012.1
20260507064904 53 350 4.3 7.8 0.00 1.52 0.00 82 1012.1
20260507064804 53 349 3.5 7.8 0.00 1.52 0.00 82 1012.1
20260507064604 53 349 4.3 7.8 0.00 1.52 0.00 83 1012.2
20260507064504 53 353 4.3 7.8 0.00 1.52 0.00 83 1012.2
20260507064408 53 355 4.3 7.8 0.00 1.52 0.00 83 1012.1
20260507064303 53 356 4.3 7.8 0.00 1.52 0.00 83 1012.1
20260507064204 53 357 4.3 7.8 0.00 1.52 0.00 83 1012.1
20260507064115 53 358 4.3 7.8 0.00 1.52 0.00 83 1012.2
20260507064004 52 1 3.5 7.8 0.00 1.52 0.00 83 1012.3
20260507063903 52 3 3.5 7.8 0.00 1.52 0.00 83 1012.2
20260507063804 52 4 3.5 7.8 0.00 1.52 0.00 83 1012.2
20260507063704 52 5 3.5 7.8 0.00 1.52 0.00 83 1012.2
20260507063603 52 9 2.6 7.0 0.00 1.52 0.00 82 1012.3
20260507063504 52 8 2.6 7.0 0.00 1.52 0.00 84 1012.2
20260507063405 52 8 2.6 4.3 0.00 1.52 0.00 84 1012.2
20260507063303 52 9 2.6 4.3 0.00 1.52 0.00 84 1012.2
20260507063203 52 10 2.6 4.3 0.00 1.52 0.00 84 1012.2
20260507063104 52 7 2.6 4.3 0.00 1.52 0.00 84 1012.1
20260507063004 52 6 2.6 4.3 0.00 1.52 0.00 84 1012.1
20260507062903 52 7 2.6 4.3 0.00 1.17 0.00 85 1012.1
20260507062810 52 2 2.6 5.2 0.00 1.17 0.00 85 1012.1
20260507062703 52 3 2.6 5.2 0.00 1.17 0.00 85 1012.1
20260507062603 52 4 2.6 5.2 0.00 1.17 0.00 85 1012.1
20260507062515 52 8 2.6 5.2 0.00 1.17 0.00 85 1012.1
20260507062404 52 8 2.6 5.2 0.00 1.20 0.00 85 1012.1
20260507062306 52 6 2.6 5.2 0.00 1.20 0.00 86 1012.1
20260507062203 52 5 2.6 5.2 0.00 1.20 0.00 86 1012.1
20260507062103 52 8 2.6 5.2 0.00 1.20 0.00 87 1012.1
20260507062004 51 10 2.6 5.2 0.00 1.20 0.00 87 1012.0
20260507061903 51 10 3.5 5.2 0.00 1.20 0.00 87 1012.1
20260507061804 51 11 3.5 5.2 0.00 1.20 0.00 86 1012.0
20260507061703 51 8 3.5 5.2 0.00 1.20 0.00 86 1012.1
20260507061603 51 5 2.6 5.2 0.00 1.20 0.00 86 1012.0
20260507061508 51 1 2.6 5.2 0.00 1.20 0.00 87 1012.0
20260507061404 51 358 2.6 5.2 0.00 1.24 0.00 86 1012.0
20260507061304 51 355 2.6 5.2 0.00 1.24 0.00 86 1012.0
20260507061215 51 353 2.6 5.2 0.00 1.24 0.00 86 1012.1
20260507061104 51 352 2.6 5.2 0.00 1.24 0.00 87 1012.0
20260507061004 51 349 2.6 5.2 0.00 1.24 0.00 87 1012.0
20260507060904 51 348 2.6 5.2 0.00 1.28 0.00 87 1011.9
20260507060704 51 350 2.6 5.2 0.00 1.28 0.00 87 1012.0
20260507060603 51 351 2.6 5.2 0.00 1.28 0.00 87 1012.0
20260507060504 51 353 2.6 5.2 0.00 1.28 0.00 87 1012.0
20260507060404 51 355 2.6 5.2 0.00 1.28 0.00 87 1012.0
20260507060303 51 357 2.6 5.2 0.00 1.28 0.00 87 1012.0
20260507060203 51 359 2.6 5.2 0.00 1.28 0.00 87 1012.0
20260507060103 51 359 1.7 4.3 0.00 1.28 0.00 87 1012.0
20260507060004 51 2 1.7 4.3 0.00 1.28 0.00 87 1012.0
20260507055904 51 4 1.7 4.3 0.00 1.32 0.00 88 1012.0
20260507055803 51 5 1.7 4.3 0.00 1.32 0.00 88 1012.0
20260507055704 51 6 0.9 3.5 0.00 1.32 0.00 87 1012.0
20260507055608 51 3 0.9 3.5 0.00 1.32 0.00 87 1012.0
20260507055504 51 1 0.9 3.5 0.00 1.32 0.00 88 1012.0
20260507055403 51 5 0.9 3.5 0.00 1.36 0.00 89 1012.0
20260507055314 51 7 0.9 3.5 0.00 1.36 0.00 89 1012.0
20260507055205 51 8 0.9 3.5 0.00 1.36 0.00 89 1011.9
20260507055103 51 8 0.9 3.5 0.00 1.36 0.00 89 1012.0
20260507055004 50 7 1.7 3.5 0.00 1.36 0.00 89 1012.0
20260507054903 50 5 1.7 3.5 0.00 1.40 0.00 89 1012.0
20260507054805 50 5 0.9 3.5 0.00 1.40 0.00 88 1012.0
20260507054704 50 7 0.9 3.5 0.00 1.40 0.00 89 1012.0
20260507054604 50 13 0.9 3.5 0.00 1.40 0.00 89 1012.1
20260507054504 50 11 0.9 5.2 0.00 1.40 0.00 88 1012.1
20260507054404 50 4 1.7 5.2 0.00 1.40 0.00 88 1012.0
20260507054104 51 1 1.7 5.2 0.00 1.40 0.00 89 1011.8
20260507053904 51 358 0.9 5.2 0.00 1.40 0.00 89 1011.9
20260507053705 51 357 1.7 5.2 0.00 1.40 0.00 89 1011.9
20260507053604 51 356 1.7 5.2 0.00 1.40 0.00 89 1011.9
20260507053504 51 356 1.7 4.3 0.00 1.40 0.00 89 1011.9
20260507053404 51 355 0.9 3.5 0.00 1.40 0.00 90 1012.0
20260507053304 50 353 0.9 3.5 0.00 1.40 0.00 90 1011.9
20260507053204 50 355 1.7 3.5 0.00 1.40 0.00 90 1011.8
20260507053104 50 353 1.7 3.5 0.00 1.40 0.00 90 1011.9
20260507053005 50 353 1.7 3.5 0.00 1.40 0.00 90 1011.9
20260507052604 50 345 1.7 3.5 0.00 1.40 0.00 90 1012.0
20260507052504 50 343 0.9 3.5 0.00 1.40 0.00 90 1011.9
20260507052415 50 342 0.9 3.5 0.00 1.40 0.00 90 1012.0
20260507052306 50 341 0.9 3.5 0.00 1.40 0.00 90 1012.0
20260507052203 50 329 0.9 3.5 0.00 1.40 0.00 90 1012.0
20260507052104 50 321 0.9 2.6 0.00 1.40 0.00 90 1012.0
20260507052004 50 322 0.9 2.6 0.00 1.40 0.00 90 1012.0
20260507051904 50 323 0.9 2.6 0.00 1.44 0.00 90 1012.1
20260507051804 50 324 0.9 2.6 0.00 1.44 0.00 90 1012.0
20260507051704 50 325 0.9 2.6 0.00 1.44 0.00 90 1012.0
20260507051604 50 325 0.9 2.6 0.00 1.44 0.00 91 1012.0
20260507051504 50 327 0.9 2.6 0.00 1.44 0.00 91 1012.0
20260507051408 50 330 0.9 2.6 0.00 1.44 0.00 91 1011.9
20260507051304 50 333 0.9 2.6 0.00 1.44 0.00 91 1011.9
20260507051004 50 2 0.9 2.6 0.00 1.44 0.00 90 1011.8
20260507050904 50 15 0.9 1.7 0.00 1.48 0.00 91 1011.8
20260507050803 50 29 0.9 2.6 0.00 1.48 0.00 91 1011.8
20260507050604 50 29 0.9 2.6 0.00 1.48 0.00 91 1011.8
20260507050504 50 28 0.9 2.6 0.00 1.48 0.00 91 1011.9
20260507050403 50 25 0.9 2.6 0.00 1.48 0.00 91 1011.8
20260507050204 50 26 0.9 2.6 0.00 1.48 0.00 91 1011.8
20260507050104 50 24 0.0 2.6 0.00 1.48 0.00 91 1011.8
20260507050005 50 11 0.0 2.6 0.00 1.48 0.00 91 1011.7
20260507045903 50 8 0.0 2.6 0.00 1.48 0.00 91 1011.8
20260507045803 50 328 0.0 1.7 0.00 1.48 0.00 91 1011.8
20260507045704 50 312 0.0 0.9 0.00 1.48 0.00 91 1011.8
20260507045604 50 329 0.0 1.7 0.00 1.48 0.00 92 1011.8
20260507045508 50 335 0.0 1.7 0.00 1.48 0.00 92 1011.7
20260507045306 50 343 0.0 1.7 0.00 1.48 0.00 92 1011.7
20260507045214 50 344 0.0 1.7 0.00 1.48 0.00 92 1011.8
20260507045104 50 347 0.0 1.7 0.00 1.48 0.00 92 1011.8
20260507044904 49 353 0.9 1.7 0.00 1.48 0.00 92 1011.7
20260507044804 49 357 0.0 1.7 0.00 1.48 0.00 92 1011.7
20260507044704 49 357 0.9 1.7 0.00 1.48 0.00 92 1011.6
20260507044604 49 357 0.9 1.7 0.00 1.48 0.00 92 1011.7
20260507044504 49 6 0.9 2.6 0.00 1.48 0.00 92 1011.6
20260507044403 49 10 0.9 2.6 0.00 1.52 0.00 92 1011.6
20260507044303 49 10 0.9 2.6 0.00 1.52 0.00 92 1011.7
20260507044103 49 9 0.9 2.6 0.00 1.52 0.00 92 1011.5
20260507044004 49 15 0.9 2.6 0.00 1.52 0.00 92 1011.5
20260507043913 49 15 0.9 2.6 0.00 1.52 0.00 92 1011.4
20260507043803 49 16 1.7 2.6 0.00 1.52 0.00 92 1011.5
20260507043704 49 17 1.7 2.6 0.00 1.52 0.00 92 1011.5
20260507043603 49 19 0.9 2.6 0.00 1.52 0.00 92 1011.4
20260507043504 49 17 0.9 2.6 0.00 1.52 0.00 92 1011.5
20260507043403 49 15 0.9 2.6 0.00 1.52 0.00 92 1011.4
20260507043304 49 16 0.9 2.6 0.00 1.52 0.00 92 1011.3
20260507043204 49 18 0.9 2.6 0.00 1.52 0.00 92 1011.3
20260507043004 49 11 0.9 2.6 0.00 1.52 0.00 92 1011.2
20260507042903 49 11 0.9 2.6 0.00 1.52 0.00 92 1011.2
20260507042804 49 9 0.0 1.7 0.00 1.52 0.00 92 1011.1
20260507042608 49 2 0.0 1.7 0.00 1.52 0.00 92 1011.2
20260507042504 49 355 0.0 1.7 0.00 1.52 0.00 92 1011.1
20260507042404 49 353 0.0 0.9 0.00 1.52 0.00 92 1011.0
20260507042315 49 353 0.0 0.9 0.00 1.52 0.00 92 1011.1
20260507042204 49 353 0.0 0.9 0.00 1.52 0.00 92 1011.1
20260507042104 49 353 0.0 0.9 0.00 1.52 0.00 92 1011.1
20260507041904 49 350 0.0 1.7 0.00 1.52 0.00 92 1011.1
20260507041803 49 351 0.0 1.7 0.00 1.52 0.00 92 1011.0
20260507041704 49 7 0.9 1.7 0.00 1.52 0.00 92 1011.0
20260507041604 49 21 0.9 1.7 0.00 1.52 0.00 92 1010.9
20260507041504 49 22 0.9 1.7 0.00 1.52 0.00 92 1011.0
20260507041404 49 21 0.9 1.7 0.00 1.52 0.00 92 1011.0
20260507041309 49 21 0.9 1.7 0.00 1.52 0.00 92 1011.0
20260507041104 49 25 0.9 1.7 0.00 1.52 0.00 92 1011.0
20260507041015 49 27 0.9 1.7 0.00 1.52 0.00 92 1010.9
20260507040903 49 36 0.9 1.7 0.00 1.52 0.00 92 1010.9
20260507040703 49 15 0.0 1.7 0.00 1.52 0.00 92 1010.9
20260507040603 49 357 0.0 1.7 0.00 1.52 0.00 92 1010.9
20260507040505 49 350 0.0 1.7 0.00 1.52 0.00 92 1010.9
20260507040404 49 350 0.0 1.7 0.00 1.52 0.00 92 1010.9
20260507040304 49 350 0.0 1.7 0.00 1.52 0.00 92 1010.9
20260507040204 49 346 0.0 1.7 0.00 1.52 0.00 92 1010.8
20260507040104 49 335 0.9 2.6 0.00 1.52 0.00 92 1010.9
20260507040007 49 329 0.9 2.6 0.00 1.52 0.00 92 1010.9
20260507035904 49 324 0.9 2.6 0.00 1.52 0.00 92 1010.9
20260507035803 49 320 0.9 2.6 0.00 1.52 0.00 92 1010.8
20260507035714 49 317 0.9 2.6 0.00 1.52 0.00 92 1010.9
20260507035604 49 314 0.9 2.6 0.00 1.52 0.00 92 1010.9
20260507035504 49 314 0.9 2.6 0.00 1.52 0.00 92 1011.0
20260507035403 49 314 0.9 2.6 0.00 1.52 0.00 92 1010.9
20260507035306 49 313 0.9 2.6 0.00 1.52 0.00 92 1010.9
20260507035204 49 310 0.9 2.6 0.00 1.52 0.00 92 1011.0
20260507035104 49 309 0.9 2.6 0.00 1.52 0.00 92 1010.9
20260507034804 49 310 0.9 2.6 0.00 1.52 0.00 92 1010.9
20260507034703 49 309 0.9 2.6 0.00 1.52 0.00 92 1010.9
20260507034603 49 308 0.9 2.6 0.00 1.52 0.00 92 1010.8
20260507034505 49 306 0.9 2.6 0.00 1.52 0.00 92 1010.7
20260507034304 49 307 0.9 2.6 0.00 1.52 0.00 92 1010.9
20260507033903 49 302 1.7 3.5 0.00 1.52 0.00 92 1010.9
20260507033803 49 298 1.7 3.5 0.00 1.52 0.00 92 1010.9
20260507033603 49 291 1.7 3.5 0.00 1.52 0.00 92 1010.9
20260507033504 49 289 1.7 3.5 0.00 1.52 0.00 92 1010.9
20260507033404 49 288 1.7 3.5 0.00 1.52 0.00 92 1010.9
20260507033304 49 286 1.7 3.5 0.00 1.52 0.00 92 1010.9
20260507033204 49 281 1.7 3.5 0.00 1.52 0.00 92 1010.9
20260507033103 49 281 1.7 3.5 0.00 1.52 0.00 92 1010.9
20260507033004 49 283 1.7 3.5 0.00 1.52 0.00 92 1011.0
20260507032903 49 286 1.7 3.5 0.00 1.52 0.00 92 1010.9
20260507032804 49 291 0.9 3.5 0.00 1.52 0.00 92 1010.8
20260507032703 49 293 0.9 3.5 0.00 1.52 0.00 92 1010.9
20260507032603 49 300 0.9 3.5 0.00 1.52 0.00 92 1010.8
20260507032511 49 311 0.9 2.6 0.00 1.52 0.00 92 1010.8
20260507032305 49 326 0.0 1.7 0.00 1.52 0.00 92 1010.8
20260507032215 49 326 0.0 1.7 0.00 1.52 0.00 92 1010.8
20260507032004 49 326 0.9 2.6 0.00 1.52 0.00 92 1010.9
20260507031904 49 326 0.9 2.6 0.00 1.52 0.00 92 1010.8
20260507031804 49 326 0.9 2.6 0.00 1.52 0.00 92 1010.8
20260507031704 49 326 0.9 2.6 0.00 1.52 0.00 92 1010.8
20260507031603 50 328 0.9 2.6 0.00 1.52 0.00 92 1010.8
20260507031504 50 330 0.9 2.6 0.00 1.52 0.00 92 1010.7
20260507031404 50 332 0.9 2.6 0.00 1.52 0.00 92 1010.8
20260507031304 50 332 0.9 2.6 0.00 1.52 0.00 92 1010.8
20260507031203 50 334 0.9 2.6 0.00 1.52 0.00 92 1010.8
20260507031103 50 337 0.9 2.6 0.00 1.52 0.00 92 1010.8
20260507031004 50 343 0.9 2.6 0.00 1.52 0.00 92 1010.8
20260507030908 50 347 0.9 2.6 0.00 1.52 0.00 92 1010.8
20260507030803 50 352 0.9 2.6 0.00 1.52 0.00 92 1010.8
20260507030704 50 353 0.9 2.6 0.00 1.52 0.00 92 1010.7
20260507030504 50 355 0.9 2.6 0.00 1.52 0.00 92 1010.7
20260507030403 50 354 0.9 2.6 0.00 1.52 0.00 92 1010.8
20260507030303 50 353 0.9 2.6 0.00 1.52 0.00 92 1010.8
20260507030204 50 352 0.9 2.6 0.00 1.52 0.00 92 1010.7
20260507030004 50 345 0.9 2.6 0.00 1.52 0.00 92 1010.8
20260507025903 50 341 0.9 2.6 0.00 1.52 0.00 92 1010.7
20260507025804 50 339 1.7 2.6 0.00 1.52 0.00 92 1010.8
20260507025705 50 338 1.7 2.6 0.00 1.52 0.00 92 1010.8
20260507025604 50 337 1.7 2.6 0.00 1.52 0.00 92 1010.8
20260507025505 50 334 1.7 2.6 0.00 1.52 0.00 92 1010.8
20260507025403 50 337 1.7 3.5 0.00 1.52 0.00 92 1010.8
20260507025204 50 342 2.6 5.2 0.00 1.52 0.00 92 1010.8
20260507025103 50 342 2.6 5.2 0.00 1.52 0.00 92 1010.8
20260507025015 50 342 2.6 5.2 0.00 1.52 0.00 92 1010.7
20260507024903 50 343 2.6 5.2 0.00 1.52 0.00 92 1010.7
20260507024704 50 342 3.5 5.2 0.00 1.52 0.00 92 1010.8
20260507024604 50 342 3.5 5.2 0.00 1.52 0.00 92 1010.7
20260507024503 50 342 3.5 5.2 0.00 1.52 0.00 92 1010.7
20260507024403 50 340 3.5 5.2 0.00 1.52 0.00 92 1010.7
20260507024304 50 338 3.5 5.2 0.00 1.52 0.00 92 1010.7
20260507024203 50 335 3.5 5.2 0.00 1.52 0.00 92 1010.7
20260507024104 50 333 2.6 5.2 0.00 1.52 0.00 92 1010.7
20260507024005 50 331 2.6 5.2 0.00 1.52 0.00 92 1010.7
20260507023904 50 329 2.6 5.2 0.00 1.52 0.00 92 1010.7
20260507023804 50 326 2.6 4.3 0.00 1.52 0.00 92 1010.8
20260507023703 50 323 1.7 4.3 0.00 1.52 0.00 92 1010.8
20260507023603 50 321 1.7 3.5 0.00 1.52 0.00 92 1010.8
20260507023504 50 317 1.7 3.5 0.00 1.52 0.00 92 1010.7
20260507023405 50 314 1.7 2.6 0.00 1.52 0.00 92 1010.8
20260507023305 50 314 0.9 2.6 0.00 1.52 0.00 92 1010.8
20260507023204 50 313 0.9 2.6 0.00 1.52 0.00 92 1010.8
20260507023004 50 316 0.9 2.6 0.00 1.52 0.00 92 1010.7
20260507022904 50 318 0.9 2.6 0.00 1.52 0.00 92 1010.7
20260507022815 50 318 0.9 3.5 0.00 1.52 0.00 92 1010.7
20260507022704 50 320 0.9 4.3 0.00 1.52 0.00 92 1010.7
20260507022604 50 321 1.7 4.3 0.00 1.52 0.00 92 1010.7
20260507022504 50 321 1.7 4.3 0.00 1.52 0.00 92 1010.7
20260507022404 50 322 1.7 4.3 0.00 1.52 0.00 92 1010.7
20260507022306 50 322 2.6 4.3 0.00 1.52 0.00 92 1010.6
20260507022203 50 322 2.6 4.3 0.00 1.52 0.00 92 1010.7
20260507022104 50 323 2.6 4.3 0.00 1.52 0.00 92 1010.8
20260507022005 50 324 2.6 4.3 0.00 1.52 0.00 92 1010.7
20260507021904 50 325 2.6 4.3 0.00 1.52 0.00 92 1010.7
20260507021803 50 327 2.6 4.3 0.00 1.52 0.00 92 1010.7
20260507021704 50 329 2.6 4.3 0.00 1.52 0.00 92 1010.6
20260507021604 51 332 2.6 4.3 0.00 1.52 0.00 92 1010.7
20260507021504 50 333 2.6 4.3 0.00 1.52 0.00 92 1010.7
20260507021404 50 335 2.6 4.3 0.00 1.52 0.00 92 1010.6
20260507021305 51 337 2.6 3.5 0.00 1.52 0.00 92 1010.6
20260507021203 51 339 2.6 3.5 0.00 1.52 0.00 92 1010.7
20260507021103 51 341 2.6 3.5 0.00 1.52 0.00 92 1010.6
20260507021004 51 343 2.6 3.5 0.00 1.52 0.00 92 1010.7
20260507020903 51 342 2.6 3.5 0.00 1.52 0.00 92 1010.7
20260507020804 51 345 2.6 4.3 0.00 1.52 0.00 92 1010.7
20260507020704 51 345 2.6 4.3 0.00 1.52 0.00 92 1010.7
20260507020504 51 346 2.6 4.3 0.00 1.52 0.00 92 1010.7
20260507020404 51 347 2.6 4.3 0.00 1.52 0.00 92 1010.7
20260507020308 51 347 2.6 4.3 0.00 1.52 0.00 92 1010.7
20260507020204 51 348 2.6 4.3 0.00 1.52 0.00 92 1010.6
20260507020104 51 348 2.6 4.3 0.00 1.52 0.00 92 1010.6
20260507020014 51 347 2.6 4.3 0.00 1.52 0.00 92 1010.6
20260507015903 51 346 2.6 4.3 0.00 1.52 0.00 92 1010.7
20260507015803 51 345 2.6 4.3 0.00 1.52 0.00 92 1010.7
20260507015704 51 343 2.6 4.3 0.00 1.52 0.00 92 1010.7
20260507015604 51 340 2.6 4.3 0.00 1.52 0.00 92 1010.7
20260507015504 51 337 2.6 4.3 0.00 1.52 0.00 92 1010.6
20260507015104 51 326 2.6 4.3 0.00 1.52 0.00 92 1010.7
20260507015007 51 326 2.6 4.3 0.00 1.52 0.00 92 1010.6
20260507014903 51 327 1.7 4.3 0.00 1.52 0.00 92 1010.7
20260507014803 51 323 1.7 4.3 0.00 1.52 0.00 92 1010.7
20260507014504 51 326 0.9 3.5 0.00 1.52 0.00 92 1010.6
20260507014404 51 334 0.9 3.5 0.00 1.52 0.00 92 1010.6
20260507014303 51 343 0.9 2.6 0.00 1.52 0.00 92 1010.5
20260507014203 51 352 0.9 3.5 0.00 1.52 0.00 92 1010.7
20260507014004 51 348 1.7 5.2 0.00 1.52 0.00 92 1010.6
20260507013803 51 346 1.7 5.2 0.00 1.52 0.00 92 1010.5
20260507013706 51 347 1.7 5.2 0.00 1.52 0.00 92 1010.5
20260507013604 51 346 2.6 5.2 0.00 1.52 0.00 92 1010.6
20260507013414 51 345 2.6 5.2 0.00 1.52 0.00 92 1010.5
20260507013304 51 343 2.6 5.2 0.00 1.52 0.00 92 1010.5
20260507013204 51 341 2.6 5.2 0.00 1.52 0.00 92 1010.5
20260507013104 51 339 3.5 5.2 0.00 1.52 0.00 92 1010.5
20260507012804 51 332 2.6 4.3 0.00 1.52 0.00 92 1010.4
20260507012704 51 329 2.6 4.3 0.00 1.52 0.00 92 1010.5
20260507012604 51 326 2.6 4.3 0.00 1.52 0.00 92 1010.5
20260507012407 51 321 1.7 4.3 0.00 1.52 0.00 92 1010.4
20260507012306 51 320 1.7 4.3 0.00 1.52 0.00 92 1010.4
20260507012204 51 319 1.7 4.3 0.00 1.52 0.00 92 1010.4
20260507012113 51 317 1.7 4.3 0.00 1.52 0.00 91 1010.4
20260507011903 51 319 1.7 3.5 0.00 1.52 0.00 92 1010.4
20260507011803 51 322 1.7 3.5 0.00 1.52 0.00 92 1010.4
20260507011704 51 326 1.7 3.5 0.00 1.52 0.00 92 1010.3
20260507011603 51 327 1.7 3.5 0.00 1.52 0.00 92 1010.4
20260507011403 51 333 1.7 3.5 0.00 1.52 0.00 92 1010.3
20260507011304 51 334 1.7 3.5 0.00 1.52 0.00 92 1010.4
20260507011203 51 334 2.6 4.3 0.00 1.52 0.00 92 1010.4
20260507011004 51 334 2.6 4.3 0.00 1.52 0.00 91 1010.4
20260507010807 51 332 2.6 4.3 0.00 1.52 0.00 91 1010.3
20260507010704 51 330 2.6 4.3 0.00 1.52 0.00 91 1010.4
20260507010603 51 329 2.6 4.3 0.00 1.52 0.00 91 1010.5
20260507010513 51 326 2.6 4.3 0.00 1.52 0.00 92 1010.3
20260507010404 51 324 2.6 4.3 0.00 1.52 0.00 92 1010.3
20260507010304 51 322 2.6 4.3 0.00 1.52 0.00 92 1010.4
20260507010005 51 315 2.6 4.3 0.00 1.52 0.00 92 1010.3
20260507005904 52 313 2.6 4.3 0.00 1.52 0.00 92 1010.3
20260507005803 52 311 2.6 4.3 0.00 1.52 0.00 92 1010.4
20260507005711 52 309 2.6 4.3 0.00 1.52 0.00 91 1010.3
20260507005603 52 308 1.7 4.3 0.00 1.52 0.00 91 1010.3
20260507005503 52 308 2.6 4.3 0.00 1.52 0.00 91 1010.4
20260507005404 52 307 2.6 4.3 0.00 1.52 0.00 91 1010.3
20260507005305 52 306 2.6 4.3 0.00 1.52 0.00 91 1010.3
20260507005103 52 307 1.7 3.5 0.00 1.52 0.00 91 1010.1
20260507005003 52 307 1.7 3.5 0.00 1.52 0.00 91 1010.1
20260507004915 52 307 1.7 3.5 0.00 1.52 0.00 91 1010.2
20260507004803 52 307 1.7 3.5 0.00 1.52 0.00 91 1010.1
20260507004704 52 307 1.7 3.5 0.00 1.52 0.00 91 1010.2
20260507004603 52 308 1.7 3.5 0.00 1.52 0.00 91 1010.1
20260507004504 52 307 1.7 3.5 0.00 1.52 0.00 91 1010.1
20260507004403 52 308 0.9 3.5 0.00 1.52 0.00 91 1010.0
20260507004304 52 310 0.9 3.5 0.00 1.52 0.00 91 1010.0
20260507004205 52 313 0.9 3.5 0.00 1.52 0.00 91 1010.1
20260507004104 52 311 0.9 3.5 0.00 1.52 0.00 91 1010.1
20260507004003 52 312 0.9 1.7 0.00 1.52 0.00 92 1010.1
20260507003912 52 313 0.9 1.7 0.00 1.52 0.00 91 1010.1
20260507003803 52 316 0.9 1.7 0.00 1.52 0.00 91 1010.1
20260507003603 52 322 0.9 2.6 0.00 1.52 0.00 92 1010.0
20260507003504 52 327 0.9 2.6 0.00 1.52 0.00 92 1010.0
20260507003304 52 336 1.7 3.5 0.00 1.52 0.00 91 1010.0
20260507003104 52 339 1.7 3.5 0.00 1.52 0.00 91 1010.1
20260507002912 52 340 1.7 3.5 0.00 1.52 0.00 91 1010.1
20260507002804 52 341 1.7 3.5 0.00 1.52 0.00 91 1010.1
20260507002703 52 342 1.7 3.5 0.00 1.52 0.00 91 1010.1
20260507002604 52 344 1.7 3.5 0.00 1.52 0.00 91 1010.0
20260507002504 52 344 1.7 3.5 0.00 1.52 0.00 91 1010.2
20260507002306 52 338 1.7 3.5 0.00 1.52 0.00 91 1010.1
20260507002204 52 335 1.7 3.5 0.00 1.52 0.00 91 1010.1
20260507002005 52 334 1.7 2.6 0.00 1.52 0.00 91 1010.1
20260507001804 52 329 1.7 3.5 0.00 1.52 0.00 91 1010.2
20260507001704 52 326 1.7 3.5 0.00 1.52 0.00 91 1010.2
20260507001504 52 324 1.7 3.5 0.00 1.52 0.00 91 1010.2
20260507001404 52 325 1.7 3.5 0.00 1.52 0.00 91 1010.2
20260507001204 53 327 1.7 3.5 0.00 1.52 0.00 91 1010.1
20260507001104 53 327 1.7 3.5 0.00 1.52 0.00 91 1010.1
20260507001004 53 327 1.7 3.5 0.00 1.52 0.00 91 1010.1
20260507000804 53 331 0.9 2.6 0.00 1.52 0.00 91 1010.1
20260507000303 53 337 0.9 1.7 0.00 1.52 0.00 91 1010.2
20260507000205 53 337 0.0 1.7 0.00 1.52 0.00 91 1010.1
20260507000104 53 337 0.0 1.7 0.00 1.52 0.00 91 1010.1
20260507000004 53 337 0.9 1.7 0.00 1.52 0.00 91 1010.1
20260506235904 53 337 0.9 1.7 0.00 1.52 0.00 91 1010.1
20260506235804 53 337 0.9 1.7 0.00 1.52 0.00 91 1010.1
20260506235704 53 338 0.9 1.7 0.00 1.52 0.00 91 1010.2
20260506235611 53 338 0.9 1.7 0.00 1.52 0.00 91 1010.1
20260506235404 53 338 0.9 1.7 0.00 1.52 0.00 91 1010.1